Wetterdaten: Sonntag, 12.12.2021
Datum Zeit Temp. Aussen Temp. o. S. Temp +5cm Feuchte Auss Luftdruck Regen Sonnenschein Regendauer Solar Windben Empfang
12.12.2021 00:00 2,4 C 2,2 C 0,6 C 96 % 1022,6 hPa 0,0 l/m 0 min 0 min 0 W/m 6,4 km/h (2 Bft) 97,87 %
12.12.2021 00:02 2,4 C 2,2 C 0,6 C 96 % 1022,6 hPa 0,0 l/m 0 min 0 min 0 W/m 6,4 km/h (2 Bft) 94,87 %
12.12.2021 00:04 2,4 C 2,2 C 1,1 C 96 % 1022,7 hPa 0,0 l/m 0 min 0 min 0 W/m 6,4 km/h (2 Bft) 97,87 %
12.12.2021 00:08 2,4 C 2,2 C 1,1 C 96 % 1022,7 hPa 0,0 l/m 0 min 0 min 0 W/m 6,4 km/h (2 Bft) 95,79 %
12.12.2021 00:10 2,4 C 2,2 C 1,1 C 96 % 1022,7 hPa 0,0 l/m 0 min 0 min 0 W/m 12,9 km/h (3 Bft) 95,74 %
12.12.2021 00:12 2,4 C 2,2 C 1,1 C 96 % 1022,7 hPa 0,0 l/m 0 min 0 min 0 W/m 12,9 km/h (3 Bft) 95,74 %
12.12.2021 00:14 2,4 C 2,2 C 1,1 C 96 % 1022,6 hPa 0,0 l/m 0 min 0 min 0 W/m 6,4 km/h (2 Bft) 97,83 %
12.12.2021 00:16 2,4 C 2,2 C 1,1 C 96 % 1022,6 hPa 0,0 l/m 0 min 0 min 0 W/m 12,9 km/h (3 Bft) 97,87 %
12.12.2021 00:18 2,4 C 2,2 C 1,1 C 96 % 1022,5 hPa 0,0 l/m 0 min 0 min 0 W/m 12,9 km/h (3 Bft) 97,87 %
12.12.2021 00:20 2,4 C 2,2 C 1,1 C 96 % 1022,5 hPa 0,0 l/m 0 min 0 min 0 W/m 12,9 km/h (3 Bft) 97,87 %
12.12.2021 00:22 2,5 C 2,2 C 1,1 C 96 % 1022,5 hPa 0,0 l/m 0 min 0 min 0 W/m 6,4 km/h (2 Bft) 100,00 %
12.12.2021 00:24 2,5 C 2,2 C 1,1 C 96 % 1022,6 hPa 0,0 l/m 0 min 0 min 0 W/m 12,9 km/h (3 Bft) 100,00 %
12.12.2021 00:26 2,5 C 2,2 C 1,1 C 96 % 1022,6 hPa 0,0 l/m 0 min 0 min 0 W/m 16,1 km/h (3 Bft) 100,00 %
12.12.2021 00:28 2,5 C 2,2 C 1,1 C 96 % 1022,6 hPa 0,0 l/m 0 min 0 min 0 W/m 6,4 km/h (2 Bft) 100,00 %
12.12.2021 00:30 2,5 C 2,2 C 1,1 C 96 % 1022,6 hPa 0,0 l/m 0 min 0 min 0 W/m 6,4 km/h (2 Bft) 97,87 %
12.12.2021 00:32 2,5 C 2,2 C 1,1 C 96 % 1022,5 hPa 0,0 l/m 0 min 0 min 0 W/m 12,9 km/h (3 Bft) 100,00 %
12.12.2021 00:34 2,5 C 2,2 C 1,1 C 96 % 1022,5 hPa 0,0 l/m 0 min 0 min 0 W/m 6,4 km/h (2 Bft) 100,00 %
12.12.2021 00:36 2,5 C 2,2 C 1,1 C 96 % 1022,5 hPa 0,0 l/m 0 min 0 min 0 W/m 12,9 km/h (3 Bft) 100,00 %
12.12.2021 00:38 2,5 C 2,2 C 1,1 C 96 % 1022,6 hPa 0,0 l/m 0 min 0 min 0 W/m 6,4 km/h (2 Bft) 100,00 %
12.12.2021 00:40 2,5 C 2,2 C 1,1 C 96 % 1022,6 hPa 0,0 l/m 0 min 0 min 0 W/m 6,4 km/h (2 Bft) 100,00 %
12.12.2021 00:42 2,5 C 2,2 C 1,1 C 96 % 1022,5 hPa 0,0 l/m 0 min 0 min 0 W/m 6,4 km/h (2 Bft) 100,00 %
12.12.2021 00:44 2,5 C 2,2 C 1,1 C 96 % 1022,5 hPa 0,0 l/m 0 min 0 min 0 W/m 12,9 km/h (3 Bft) 100,00 %
12.12.2021 00:46 2,5 C 2,2 C 1,1 C 96 % 1022,5 hPa 0,0 l/m 0 min 0 min 0 W/m 12,9 km/h (3 Bft) 97,87 %
12.12.2021 00:48 2,5 C 2,2 C 1,1 C 96 % 1022,4 hPa 0,0 l/m 0 min 0 min 0 W/m 16,1 km/h (3 Bft) 100,00 %
12.12.2021 00:50 2,5 C 2,2 C 1,1 C 96 % 1022,4 hPa 0,0 l/m 0 min 0 min 0 W/m 12,9 km/h (3 Bft) 100,00 %
12.12.2021 00:52 2,5 C 2,2 C 0,6 C 96 % 1022,4 hPa 0,0 l/m 0 min 0 min 0 W/m 12,9 km/h (3 Bft) 100,00 %
12.12.2021 00:54 2,5 C 2,2 C 1,1 C 96 % 1022,4 hPa 0,0 l/m 0 min 0 min 0 W/m 12,9 km/h (3 Bft) 100,00 %
12.12.2021 00:56 2,5 C 2,2 C 1,1 C 96 % 1022,4 hPa 0,0 l/m 0 min 0 min 0 W/m 12,9 km/h (3 Bft) 100,00 %
12.12.2021 00:58 2,5 C 2,2 C 0,6 C 96 % 1022,5 hPa 0,0 l/m 0 min 0 min 0 W/m 16,1 km/h (3 Bft) 100,00 %
12.12.2021 01:00 2,4 C 2,2 C 0,6 C 96 % 1022,5 hPa 0,0 l/m 0 min 0 min 0 W/m 6,4 km/h (2 Bft) 95,65 %
12.12.2021 01:02 2,4 C 2,2 C 0,6 C 96 % 1022,5 hPa 0,0 l/m 0 min 0 min 0 W/m 12,9 km/h (3 Bft) 100,00 %
12.12.2021 01:04 2,4 C 2,2 C 0,6 C 96 % 1022,5 hPa 0,0 l/m 0 min 0 min 0 W/m 16,1 km/h (3 Bft) 100,00 %
12.12.2021 01:06 2,4 C 2,2 C 0,6 C 96 % 1022,5 hPa 0,0 l/m 0 min 0 min 0 W/m 12,9 km/h (3 Bft) 93,62 %
12.12.2021 01:08 2,4 C 2,2 C 0,6 C 96 % 1022,4 hPa 0,0 l/m 0 min 0 min 0 W/m 6,4 km/h (2 Bft) 100,00 %
12.12.2021 01:10 2,4 C 2,2 C 1,1 C 96 % 1022,5 hPa 0,0 l/m 0 min 0 min 0 W/m 12,9 km/h (3 Bft) 97,83 %
12.12.2021 01:12 2,4 C 2,2 C 0,6 C 96 % 1022,5 hPa 0,0 l/m 0 min 0 min 0 W/m 12,9 km/h (3 Bft) 100,00 %
12.12.2021 01:14 2,4 C 2,2 C 0,6 C 96 % 1022,5 hPa 0,0 l/m 0 min 0 min 0 W/m 12,9 km/h (3 Bft) 95,74 %
12.12.2021 01:16 2,4 C 2,2 C 0,6 C 96 % 1022,6 hPa 0,0 l/m 0 min 0 min 0 W/m 16,1 km/h (3 Bft) 47,50 %
12.12.2021 01:18 2,4 C 2,2 C 0,6 C 96 % 1022,6 hPa 0,0 l/m 0 min 0 min 0 W/m 12,9 km/h (3 Bft) 97,87 %
12.12.2021 01:20 2,4 C 1,7 C 0,6 C 96 % 1022,5 hPa 0,0 l/m 0 min 0 min 0 W/m 12,9 km/h (3 Bft) 100,00 %
12.12.2021 01:22 2,4 C 1,7 C 0,6 C 96 % 1022,5 hPa 0,0 l/m 0 min 0 min 0 W/m 6,4 km/h (2 Bft) 97,83 %
12.12.2021 01:24 2,4 C 1,7 C 0,6 C 96 % 1022,6 hPa 0,0 l/m 0 min 0 min 0 W/m 12,9 km/h (3 Bft) 97,92 %
12.12.2021 01:26 2,4 C 1,7 C 0,6 C 96 % 1022,5 hPa 0,0 l/m 0 min 0 min 0 W/m 12,9 km/h (3 Bft) 95,74 %
12.12.2021 01:28 2,4 C 1,7 C 0,6 C 96 % 1022,5 hPa 0,0 l/m 0 min 0 min 0 W/m 12,9 km/h (3 Bft) 97,87 %
12.12.2021 01:30 2,4 C 1,7 C 0,6 C 96 % 1022,6 hPa 0,0 l/m 0 min 0 min 0 W/m 6,4 km/h (2 Bft) 97,87 %
12.12.2021 01:32 2,4 C 1,7 C 0,6 C 96 % 1022,6 hPa 0,0 l/m 0 min 0 min 0 W/m 12,9 km/h (3 Bft) 97,14 %
12.12.2021 01:34 2,3 C 1,7 C 0,6 C 96 % 1022,6 hPa 0,0 l/m 0 min 0 min 0 W/m 16,1 km/h (3 Bft) 97,87 %
12.12.2021 01:36 2,3 C 1,7 C 0,6 C 96 % 1022,5 hPa 0,0 l/m 0 min 0 min 0 W/m 12,9 km/h (3 Bft) 97,83 %
12.12.2021 01:38 2,3 C 1,7 C 0,6 C 96 % 1022,6 hPa 0,0 l/m 0 min 0 min 0 W/m 12,9 km/h (3 Bft) 97,87 %
12.12.2021 01:40 2,4 C 1,7 C 0,6 C 96 % 1022,6 hPa 0,0 l/m 0 min 0 min 0 W/m 12,9 km/h (3 Bft) 97,87 %
12.12.2021 01:42 2,3 C 2,2 C 0,6 C 96 % 1022,5 hPa 0,0 l/m 0 min 0 min 0 W/m 9,7 km/h (2 Bft) 93,62 %
12.12.2021 01:44 2,3 C 1,7 C 0,6 C 96 % 1022,5 hPa 0,0 l/m 0 min 0 min 0 W/m 12,9 km/h (3 Bft) 95,74 %
12.12.2021 01:46 2,3 C 1,7 C 0,6 C 96 % 1022,4 hPa 0,0 l/m 0 min 0 min 0 W/m 12,9 km/h (3 Bft) 95,74 %
12.12.2021 01:48 2,3 C 1,7 C 0,6 C 96 % 1022,5 hPa 0,0 l/m 0 min 0 min 0 W/m 12,9 km/h (3 Bft) 95,65 %
12.12.2021 01:50 2,3 C 1,7 C 0,6 C 96 % 1022,5 hPa 0,0 l/m 0 min 0 min 0 W/m 12,9 km/h (3 Bft) 95,74 %
12.12.2021 01:52 2,3 C 1,7 C 0,6 C 96 % 1022,4 hPa 0,0 l/m 0 min 0 min 0 W/m 12,9 km/h (3 Bft) 95,74 %
12.12.2021 01:54 2,3 C 1,7 C 0,6 C 96 % 1022,4 hPa 0,0 l/m 0 min 0 min 0 W/m 12,9 km/h (3 Bft) 97,87 %
12.12.2021 01:56 2,3 C 1,7 C 0,6 C 96 % 1022,4 hPa 0,0 l/m 0 min 0 min 0 W/m 16,1 km/h (3 Bft) 97,87 %
12.12.2021 01:58 2,3 C 1,7 C 0,6 C 96 % 1022,2 hPa 0,0 l/m 0 min 0 min 0 W/m 12,9 km/h (3 Bft) 97,87 %
12.12.2021 02:00 2,3 C 1,7 C 0,6 C 96 % 1022,2 hPa 0,0 l/m 0 min 0 min 0 W/m 12,9 km/h (3 Bft) 95,65 %
12.12.2021 02:02 2,3 C 2,2 C 0,6 C 96 % 1022,2 hPa 0,0 l/m 0 min 0 min 0 W/m 12,9 km/h (3 Bft) 95,74 %
12.12.2021 02:04 2,3 C 2,2 C 0,6 C 96 % 1022,2 hPa 0,0 l/m 0 min 0 min 0 W/m 12,9 km/h (3 Bft) 95,74 %
12.12.2021 02:06 2,3 C 2,2 C 0,6 C 96 % 1022,1 hPa 0,0 l/m 0 min 0 min 0 W/m 19,3 km/h (3 Bft) 97,87 %
12.12.2021 02:08 2,4 C 2,2 C 1,1 C 96 % 1022,1 hPa 0,0 l/m 0 min 0 min 0 W/m 16,1 km/h (3 Bft) 97,87 %
12.12.2021 02:10 2,4 C 2,2 C 1,1 C 96 % 1022,2 hPa 0,0 l/m 0 min 0 min 0 W/m 19,3 km/h (3 Bft) 98,11 %
12.12.2021 02:12 2,4 C 2,2 C 1,1 C 96 % 1022,2 hPa 0,0 l/m 0 min 0 min 0 W/m 16,1 km/h (3 Bft) 97,87 %
12.12.2021 02:14 2,4 C 2,2 C 1,1 C 96 % 1022,2 hPa 0,0 l/m 0 min 0 min 0 W/m 16,1 km/h (3 Bft) 95,74 %
12.12.2021 02:16 2,4 C 2,2 C 1,1 C 96 % 1022,1 hPa 0,0 l/m 0 min 0 min 0 W/m 12,9 km/h (3 Bft) 97,87 %
12.12.2021 02:18 2,4 C 2,2 C 1,1 C 96 % 1022,2 hPa 0,0 l/m 0 min 0 min 0 W/m 12,9 km/h (3 Bft) 97,87 %
12.12.2021 02:20 2,4 C 2,2 C 1,1 C 96 % 1022,2 hPa 0,0 l/m 0 min 0 min 0 W/m 12,9 km/h (3 Bft) 97,87 %
12.12.2021 02:22 2,4 C 2,2 C 1,1 C 96 % 1022,2 hPa 0,0 l/m 0 min 0 min 0 W/m 12,9 km/h (3 Bft) 95,65 %
12.12.2021 02:24 2,4 C 2,2 C 1,1 C 96 % 1022,1 hPa 0,0 l/m 0 min 0 min 0 W/m 19,3 km/h (3 Bft) 97,87 %
12.12.2021 02:26 2,5 C 2,2 C 1,1 C 96 % 1022,2 hPa 0,0 l/m 0 min 0 min 0 W/m 19,3 km/h (3 Bft) 97,87 %
12.12.2021 02:28 2,5 C 2,2 C 1,1 C 96 % 1022,1 hPa 0,0 l/m 0 min 0 min 0 W/m 16,1 km/h (3 Bft) 97,87 %
12.12.2021 02:30 2,5 C 2,2 C 1,1 C 96 % 1022,2 hPa 0,0 l/m 0 min 0 min 0 W/m 19,3 km/h (3 Bft) 95,74 %
12.12.2021 02:32 2,5 C 2,2 C 1,1 C 96 % 1022,1 hPa 0,0 l/m 0 min 0 min 0 W/m 12,9 km/h (3 Bft) 97,87 %
12.12.2021 02:34 2,6 C 2,2 C 1,1 C 96 % 1022,1 hPa 0,0 l/m 0 min 0 min 0 W/m 12,9 km/h (3 Bft) 97,87 %
12.12.2021 02:36 2,6 C 2,2 C 1,1 C 96 % 1022,2 hPa 0,0 l/m 0 min 0 min 0 W/m 16,1 km/h (3 Bft) 97,87 %
12.12.2021 02:38 2,6 C 2,2 C 1,1 C 96 % 1022,1 hPa 0,0 l/m 0 min 0 min 0 W/m 12,9 km/h (3 Bft) 97,87 %
12.12.2021 02:40 2,6 C 2,2 C 1,1 C 96 % 1022,1 hPa 0,0 l/m 0 min 0 min 0 W/m 9,7 km/h (2 Bft) 97,87 %
12.12.2021 02:42 2,6 C 2,2 C 1,1 C 96 % 1022,1 hPa 0,0 l/m 0 min 0 min 0 W/m 6,4 km/h (2 Bft) 95,74 %
12.12.2021 02:44 2,6 C 2,2 C 1,1 C 96 % 1022,0 hPa 0,0 l/m 0 min 0 min 0 W/m 12,9 km/h (3 Bft) 97,83 %
12.12.2021 02:46 2,6 C 2,2 C 1,1 C 96 % 1022,1 hPa 0,0 l/m 0 min 0 min 0 W/m 12,9 km/h (3 Bft) 93,62 %
12.12.2021 02:48 2,6 C 2,2 C 1,1 C 96 % 1022,0 hPa 0,0 l/m 0 min 0 min 0 W/m 12,9 km/h (3 Bft) 93,62 %
12.12.2021 02:50 2,6 C 2,2 C 1,1 C 96 % 1022,0 hPa 0,0 l/m 0 min 0 min 0 W/m 12,9 km/h (3 Bft) 95,74 %
12.12.2021 02:52 2,6 C 2,2 C 1,1 C 96 % 1022,0 hPa 0,0 l/m 0 min 0 min 0 W/m 12,9 km/h (3 Bft) 97,87 %
12.12.2021 02:54 2,6 C 2,2 C 1,1 C 96 % 1022,0 hPa 0,0 l/m 0 min 0 min 0 W/m 12,9 km/h (3 Bft) 97,87 %
12.12.2021 02:56 2,6 C 2,2 C 1,1 C 96 % 1022,0 hPa 0,0 l/m 0 min 0 min 0 W/m 16,1 km/h (3 Bft) 95,65 %
12.12.2021 02:58 2,6 C 2,2 C 1,1 C 96 % 1022,0 hPa 0,0 l/m 0 min 0 min 0 W/m 16,1 km/h (3 Bft) 97,87 %
12.12.2021 03:00 2,6 C 2,2 C 1,1 C 96 % 1022,0 hPa 0,0 l/m 0 min 0 min 0 W/m 9,7 km/h (2 Bft) 68,09 %
12.12.2021 03:02 2,7 C 2,2 C 1,1 C 96 % 1022,0 hPa 0,0 l/m 0 min 0 min 0 W/m 16,1 km/h (3 Bft) 86,36 %
12.12.2021 03:04 2,7 C 2,2 C 1,1 C 96 % 1021,9 hPa 0,0 l/m 0 min 0 min 0 W/m 12,9 km/h (3 Bft) 95,74 %
12.12.2021 03:06 2,7 C 2,2 C 1,1 C 96 % 1021,9 hPa 0,0 l/m 0 min 0 min 0 W/m 12,9 km/h (3 Bft) 97,83 %
12.12.2021 03:08 2,7 C 2,2 C 1,1 C 96 % 1021,9 hPa 0,0 l/m 0 min 0 min 0 W/m 19,3 km/h (3 Bft) 100,00 %
12.12.2021 03:10 2,7 C 2,2 C 1,1 C 96 % 1021,9 hPa 0,0 l/m 0 min 0 min 0 W/m 16,1 km/h (3 Bft) 100,00 %
12.12.2021 03:12 2,8 C 2,8 C 1,1 C 96 % 1021,9 hPa 0,0 l/m 0 min 0 min 0 W/m 19,3 km/h (3 Bft) 100,00 %
12.12.2021 03:14 2,8 C 2,8 C 1,1 C 96 % 1021,9 hPa 0,0 l/m 0 min 0 min 0 W/m 16,1 km/h (3 Bft) 97,87 %
12.12.2021 03:16 2,8 C 2,8 C 1,1 C 96 % 1021,9 hPa 0,0 l/m 0 min 0 min 0 W/m 16,1 km/h (3 Bft) 100,00 %
12.12.2021 03:18 2,8 C 2,8 C 1,1 C 96 % 1021,9 hPa 0,0 l/m 0 min 0 min 0 W/m 16,1 km/h (3 Bft) 97,83 %
12.12.2021 03:20 2,8 C 2,8 C 1,1 C 96 % 1021,9 hPa 0,0 l/m 0 min 0 min 0 W/m 12,9 km/h (3 Bft) 100,00 %
12.12.2021 03:22 2,8 C 2,8 C 1,1 C 96 % 1021,9 hPa 0,0 l/m 0 min 0 min 0 W/m 16,1 km/h (3 Bft) 97,87 %
12.12.2021 03:24 2,8 C 2,8 C 1,1 C 96 % 1021,8 hPa 0,0 l/m 0 min 0 min 0 W/m 19,3 km/h (3 Bft) 100,00 %
12.12.2021 03:26 2,9 C 2,8 C 1,1 C 96 % 1021,8 hPa 0,0 l/m 0 min 0 min 0 W/m 12,9 km/h (3 Bft) 100,00 %
12.12.2021 03:28 2,9 C 2,8 C 1,1 C 96 % 1021,8 hPa 0,0 l/m 0 min 0 min 0 W/m 16,1 km/h (3 Bft) 95,74 %
12.12.2021 03:30 2,9 C 2,8 C 1,1 C 96 % 1021,9 hPa 0,0 l/m 0 min 0 min 0 W/m 12,9 km/h (3 Bft) 97,83 %
12.12.2021 03:32 2,9 C 2,8 C 1,1 C 96 % 1021,9 hPa 0,0 l/m 0 min 0 min 0 W/m 9,7 km/h (2 Bft) 93,62 %
12.12.2021 03:34 2,9 C 2,8 C 1,1 C 96 % 1021,9 hPa 0,0 l/m 0 min 0 min 0 W/m 16,1 km/h (3 Bft) 95,74 %
12.12.2021 03:36 2,9 C 2,8 C 1,1 C 96 % 1021,9 hPa 0,0 l/m 0 min 0 min 0 W/m 12,9 km/h (3 Bft) 95,74 %
12.12.2021 03:38 2,9 C 2,8 C 1,1 C 96 % 1021,9 hPa 0,0 l/m 0 min 0 min 0 W/m 22,5 km/h (4 Bft) 95,74 %
12.12.2021 03:40 3,0 C 2,8 C 1,1 C 96 % 1021,8 hPa 0,0 l/m 0 min 0 min 0 W/m 16,1 km/h (3 Bft) 93,62 %
12.12.2021 03:42 3,0 C 2,8 C 1,1 C 96 % 1021,8 hPa 0,0 l/m 0 min 0 min 0 W/m 16,1 km/h (3 Bft) 95,65 %
12.12.2021 03:44 3,0 C 2,8 C 1,1 C 96 % 1021,9 hPa 0,0 l/m 0 min 0 min 0 W/m 12,9 km/h (3 Bft) 95,74 %
12.12.2021 03:46 3,0 C 2,8 C 1,1 C 96 % 1021,8 hPa 0,0 l/m 0 min 0 min 0 W/m 16,1 km/h (3 Bft) 93,62 %
12.12.2021 03:48 3,0 C 2,8 C 1,1 C 96 % 1021,9 hPa 0,0 l/m 0 min 0 min 0 W/m 12,9 km/h (3 Bft) 95,74 %
12.12.2021 03:50 3,1 C 2,8 C 1,1 C 96 % 1021,8 hPa 0,0 l/m 0 min 0 min 0 W/m 12,9 km/h (3 Bft) 95,74 %
12.12.2021 03:52 3,1 C 2,8 C 1,1 C 96 % 1021,9 hPa 0,0 l/m 0 min 0 min 0 W/m 16,1 km/h (3 Bft) 95,74 %
12.12.2021 03:54 3,1 C 2,8 C 1,1 C 96 % 1021,9 hPa 0,0 l/m 0 min 0 min 0 W/m 16,1 km/h (3 Bft) 95,65 %
12.12.2021 03:56 3,1 C 2,8 C 1,7 C 96 % 1021,8 hPa 0,0 l/m 0 min 0 min 0 W/m 12,9 km/h (3 Bft) 93,62 %
12.12.2021 03:58 3,1 C 2,8 C 1,7 C 96 % 1021,8 hPa 0,0 l/m 0 min 0 min 0 W/m 12,9 km/h (3 Bft) 95,74 %
12.12.2021 04:00 3,1 C 2,8 C 1,7 C 96 % 1021,8 hPa 0,0 l/m 0 min 0 min 0 W/m 12,9 km/h (3 Bft) 95,74 %
12.12.2021 04:02 3,1 C 2,8 C 1,7 C 96 % 1021,8 hPa 0,0 l/m 0 min 0 min 0 W/m 12,9 km/h (3 Bft) 100,00 %
12.12.2021 04:04 3,1 C 2,8 C 1,7 C 96 % 1021,8 hPa 0,0 l/m 0 min 0 min 0 W/m 16,1 km/h (3 Bft) 97,83 %
12.12.2021 04:06 3,1 C 2,8 C 1,7 C 96 % 1021,8 hPa 0,0 l/m 0 min 0 min 0 W/m 12,9 km/h (3 Bft) 97,87 %
12.12.2021 04:08 3,2 C 2,8 C 1,7 C 96 % 1021,8 hPa 0,0 l/m 0 min 0 min 0 W/m 16,1 km/h (3 Bft) 97,87 %
12.12.2021 04:10 3,2 C 2,8 C 1,7 C 96 % 1021,8 hPa 0,0 l/m 0 min 0 min 0 W/m 19,3 km/h (3 Bft) 100,00 %
12.12.2021 04:12 3,2 C 2,8 C 1,7 C 95 % 1021,8 hPa 0,0 l/m 0 min 0 min 0 W/m 16,1 km/h (3 Bft) 100,00 %
12.12.2021 04:14 3,2 C 2,8 C 1,7 C 96 % 1021,8 hPa 0,0 l/m 0 min 0 min 0 W/m 16,1 km/h (3 Bft) 97,87 %
12.12.2021 04:16 3,2 C 2,8 C 1,7 C 96 % 1021,8 hPa 0,0 l/m 0 min 0 min 0 W/m 12,9 km/h (3 Bft) 100,00 %
12.12.2021 04:18 3,2 C 2,8 C 1,7 C 96 % 1021,9 hPa 0,0 l/m 0 min 0 min 0 W/m 9,7 km/h (2 Bft) 100,00 %
12.12.2021 04:20 3,2 C 2,8 C 1,7 C 96 % 1021,8 hPa 0,0 l/m 0 min 0 min 0 W/m 16,1 km/h (3 Bft) 100,00 %
12.12.2021 04:22 3,3 C 2,8 C 1,7 C 96 % 1021,8 hPa 0,0 l/m 0 min 2 min 0 W/m 12,9 km/h (3 Bft) 100,00 %
12.12.2021 04:24 3,3 C 2,8 C 1,7 C 95 % 1021,8 hPa 0,0 l/m 0 min 2 min 0 W/m 6,4 km/h (2 Bft) 100,00 %
12.12.2021 04:26 3,3 C 2,8 C 1,7 C 95 % 1021,8 hPa 0,0 l/m 0 min 0 min 0 W/m 6,4 km/h (2 Bft) 100,00 %
12.12.2021 04:28 3,3 C 2,8 C 1,7 C 95 % 1021,8 hPa 0,0 l/m 0 min 2 min 0 W/m 12,9 km/h (3 Bft) 97,83 %
12.12.2021 04:30 3,3 C 2,8 C 1,7 C 95 % 1021,7 hPa 0,0 l/m 0 min 2 min 0 W/m 16,1 km/h (3 Bft) 100,00 %
12.12.2021 04:32 3,3 C 2,8 C 1,7 C 95 % 1021,7 hPa 0,0 l/m 0 min 2 min 0 W/m 16,1 km/h (3 Bft) 100,00 %
12.12.2021 04:34 3,3 C 2,8 C 1,7 C 95 % 1021,8 hPa 0,2 l/m 0 min 2 min 0 W/m 9,7 km/h (2 Bft) 100,00 %
12.12.2021 04:36 3,3 C 2,8 C 1,7 C 95 % 1021,8 hPa 0,0 l/m 0 min 2 min 0 W/m 12,9 km/h (3 Bft) 97,87 %
12.12.2021 04:38 3,3 C 2,8 C 1,1 C 95 % 1021,8 hPa 0,0 l/m 0 min 2 min 0 W/m 16,1 km/h (3 Bft) 100,00 %
12.12.2021 04:40 3,3 C 2,8 C 1,7 C 95 % 1021,8 hPa 0,0 l/m 0 min 2 min 0 W/m 16,1 km/h (3 Bft) 100,00 %
12.12.2021 04:42 3,3 C 2,8 C 1,7 C 95 % 1021,8 hPa 0,0 l/m 0 min 2 min 0 W/m 12,9 km/h (3 Bft) 97,87 %
12.12.2021 04:44 3,4 C 2,8 C 1,7 C 95 % 1021,8 hPa 0,2 l/m 0 min 2 min 0 W/m 12,9 km/h (3 Bft) 100,00 %
12.12.2021 04:46 3,4 C 2,8 C 1,7 C 95 % 1021,8 hPa 0,0 l/m 0 min 2 min 0 W/m 9,7 km/h (2 Bft) 100,00 %
12.12.2021 04:48 3,4 C 2,8 C 1,7 C 95 % 1021,8 hPa 0,0 l/m 0 min 2 min 0 W/m 12,9 km/h (3 Bft) 100,00 %
12.12.2021 04:50 3,4 C 2,8 C 1,7 C 95 % 1021,8 hPa 0,0 l/m 0 min 2 min 0 W/m 12,9 km/h (3 Bft) 100,00 %
12.12.2021 04:52 3,4 C 2,8 C 1,7 C 95 % 1021,8 hPa 0,0 l/m 0 min 2 min 0 W/m 16,1 km/h (3 Bft) 100,00 %
12.12.2021 04:54 3,4 C 2,8 C 1,7 C 95 % 1021,8 hPa 0,0 l/m 0 min 2 min 0 W/m 16,1 km/h (3 Bft) 95,74 %
12.12.2021 04:56 3,4 C 2,8 C 1,7 C 95 % 1021,8 hPa 0,0 l/m 0 min 2 min 0 W/m 12,9 km/h (3 Bft) 100,00 %
12.12.2021 04:58 3,4 C 2,8 C 1,7 C 95 % 1021,8 hPa 0,0 l/m 0 min 2 min 0 W/m 16,1 km/h (3 Bft) 100,00 %
12.12.2021 05:00 3,4 C 2,8 C 1,7 C 95 % 1021,7 hPa 0,0 l/m 0 min 2 min 0 W/m 12,9 km/h (3 Bft) 97,87 %
12.12.2021 05:02 3,4 C 2,8 C 1,7 C 95 % 1021,8 hPa 0,0 l/m 0 min 2 min 0 W/m 12,9 km/h (3 Bft) 97,87 %
12.12.2021 05:04 3,4 C 2,8 C 1,7 C 95 % 1021,7 hPa 0,0 l/m 0 min 2 min 0 W/m 16,1 km/h (3 Bft) 100,00 %
12.12.2021 05:06 3,5 C 2,8 C 1,7 C 95 % 1021,8 hPa 0,0 l/m 0 min 2 min 0 W/m 12,9 km/h (3 Bft) 100,00 %
12.12.2021 05:08 3,5 C 2,8 C 1,7 C 95 % 1021,8 hPa 0,0 l/m 0 min 2 min 0 W/m 16,1 km/h (3 Bft) 100,00 %
12.12.2021 05:10 3,5 C 2,8 C 1,7 C 95 % 1021,8 hPa 0,0 l/m 0 min 2 min 0 W/m 19,3 km/h (3 Bft) 100,00 %
12.12.2021 05:12 3,5 C 2,8 C 1,7 C 95 % 1021,7 hPa 0,2 l/m 0 min 2 min 0 W/m 12,9 km/h (3 Bft) 100,00 %
12.12.2021 05:14 3,5 C 2,8 C 1,7 C 95 % 1021,8 hPa 0,0 l/m 0 min 2 min 0 W/m 16,1 km/h (3 Bft) 100,00 %
12.12.2021 05:16 3,5 C 2,8 C 1,7 C 95 % 1021,8 hPa 0,0 l/m 0 min 2 min 0 W/m 22,5 km/h (4 Bft) 100,00 %
12.12.2021 05:18 3,5 C 2,8 C 1,7 C 95 % 1021,8 hPa 0,0 l/m 0 min 2 min 0 W/m 12,9 km/h (3 Bft) 97,87 %
12.12.2021 05:20 3,5 C 2,8 C 1,7 C 96 % 1021,7 hPa 0,0 l/m 0 min 2 min 0 W/m 12,9 km/h (3 Bft) 97,87 %
12.12.2021 05:22 3,5 C 2,8 C 1,7 C 96 % 1021,8 hPa 0,0 l/m 0 min 2 min 0 W/m 16,1 km/h (3 Bft) 97,87 %
12.12.2021 05:24 3,5 C 2,8 C 1,7 C 96 % 1021,8 hPa 0,0 l/m 0 min 2 min 0 W/m 16,1 km/h (3 Bft) 97,87 %
12.12.2021 05:26 3,6 C 2,8 C 1,7 C 96 % 1021,7 hPa 0,0 l/m 0 min 2 min 0 W/m 16,1 km/h (3 Bft) 91,49 %
12.12.2021 05:28 3,6 C 2,8 C 1,7 C 96 % 1021,7 hPa 0,2 l/m 0 min 2 min 0 W/m 12,9 km/h (3 Bft) 95,65 %
12.12.2021 05:30 3,6 C 2,8 C 1,7 C 96 % 1021,7 hPa 0,0 l/m 0 min 2 min 0 W/m 12,9 km/h (3 Bft) 95,74 %
12.12.2021 05:32 3,6 C 2,8 C 1,7 C 96 % 1021,7 hPa 0,0 l/m 0 min 2 min 0 W/m 12,9 km/h (3 Bft) 95,74 %
12.12.2021 05:34 3,6 C 2,8 C 1,7 C 96 % 1021,7 hPa 0,0 l/m 0 min 2 min 0 W/m 19,3 km/h (3 Bft) 95,74 %
12.12.2021 05:36 3,6 C 2,8 C 1,7 C 96 % 1021,7 hPa 0,0 l/m 0 min 2 min 0 W/m 12,9 km/h (3 Bft) 93,62 %
12.12.2021 05:38 3,6 C 2,8 C 1,7 C 96 % 1021,8 hPa 0,0 l/m 0 min 0 min 0 W/m 16,1 km/h (3 Bft) 93,48 %
12.12.2021 05:40 3,6 C 2,8 C 1,7 C 96 % 1021,7 hPa 0,0 l/m 0 min 2 min 0 W/m 16,1 km/h (3 Bft) 95,74 %
12.12.2021 05:42 3,6 C 2,8 C 1,7 C 96 % 1021,7 hPa 0,0 l/m 0 min 0 min 0 W/m 9,7 km/h (2 Bft) 93,62 %
12.12.2021 05:44 3,6 C 2,8 C 1,7 C 96 % 1021,7 hPa 0,0 l/m 0 min 0 min 0 W/m 16,1 km/h (3 Bft) 95,74 %
12.12.2021 05:46 3,6 C 2,8 C 1,7 C 96 % 1021,7 hPa 0,0 l/m 0 min 0 min 0 W/m 12,9 km/h (3 Bft) 93,62 %
12.12.2021 05:48 3,6 C 2,8 C 1,7 C 96 % 1021,7 hPa 0,0 l/m 0 min 0 min 0 W/m 12,9 km/h (3 Bft) 93,62 %
12.12.2021 05:50 3,7 C 2,8 C 1,7 C 96 % 1021,7 hPa 0,0 l/m 0 min 0 min 0 W/m 16,1 km/h (3 Bft) 95,65 %
12.12.2021 05:52 3,7 C 2,8 C 1,7 C 96 % 1021,7 hPa 0,0 l/m 0 min 0 min 0 W/m 16,1 km/h (3 Bft) 95,74 %
12.12.2021 05:54 3,7 C 2,8 C 1,7 C 96 % 1021,7 hPa 0,0 l/m 0 min 0 min 0 W/m 16,1 km/h (3 Bft) 93,62 %
12.12.2021 05:56 3,7 C 2,8 C 1,7 C 96 % 1021,6 hPa 0,0 l/m 0 min 0 min 0 W/m 19,3 km/h (3 Bft) 93,62 %
12.12.2021 05:58 3,7 C 2,8 C 1,7 C 96 % 1021,7 hPa 0,2 l/m 0 min 2 min 0 W/m 16,1 km/h (3 Bft) 95,74 %
12.12.2021 06:00 3,7 C 2,8 C 1,7 C 96 % 1021,6 hPa 0,0 l/m 0 min 2 min 0 W/m 12,9 km/h (3 Bft) 91,49 %
12.12.2021 06:02 3,7 C 2,8 C 1,7 C 96 % 1021,6 hPa 0,0 l/m 0 min 2 min 0 W/m 16,1 km/h (3 Bft) 95,65 %
12.12.2021 06:04 3,7 C 2,8 C 1,7 C 96 % 1021,6 hPa 0,0 l/m 0 min 2 min 0 W/m 16,1 km/h (3 Bft) 95,74 %
12.12.2021 06:08 3,7 C 2,8 C 1,7 C 96 % 1021,6 hPa 0,2 l/m 0 min 0 min 0 W/m 16,1 km/h (3 Bft) 96,81 %
12.12.2021 06:10 3,7 C 2,8 C 1,7 C 96 % 1021,5 hPa 0,0 l/m 0 min 0 min 0 W/m 19,3 km/h (3 Bft) 95,74 %
12.12.2021 06:12 3,7 C 2,8 C 1,7 C 96 % 1021,6 hPa 0,2 l/m 0 min 0 min 0 W/m 12,9 km/h (3 Bft) 97,87 %
12.12.2021 06:14 3,8 C 2,8 C 1,7 C 96 % 1021,6 hPa 0,0 l/m 0 min 0 min 0 W/m 16,1 km/h (3 Bft) 95,65 %
12.12.2021 06:16 3,8 C 2,8 C 1,7 C 96 % 1021,6 hPa 0,0 l/m 0 min 0 min 0 W/m 16,1 km/h (3 Bft) 97,87 %
12.12.2021 06:18 3,8 C 2,8 C 1,7 C 96 % 1021,5 hPa 0,0 l/m 0 min 0 min 0 W/m 19,3 km/h (3 Bft) 95,74 %
12.12.2021 06:20 3,8 C 2,8 C 2,2 C 96 % 1021,5 hPa 0,0 l/m 0 min 0 min 0 W/m 12,9 km/h (3 Bft) 93,62 %
12.12.2021 06:22 3,8 C 2,8 C 2,2 C 97 % 1021,6 hPa 0,0 l/m 0 min 0 min 0 W/m 19,3 km/h (3 Bft) 95,74 %
12.12.2021 06:24 3,8 C 2,8 C 2,2 C 97 % 1021,6 hPa 0,2 l/m 0 min 2 min 0 W/m 12,9 km/h (3 Bft) 97,87 %
12.12.2021 06:26 3,8 C 2,8 C 2,2 C 97 % 1021,6 hPa 0,0 l/m 0 min 0 min 0 W/m 16,1 km/h (3 Bft) 97,83 %
12.12.2021 06:28 3,8 C 2,8 C 2,2 C 97 % 1021,6 hPa 0,0 l/m 0 min 0 min 0 W/m 12,9 km/h (3 Bft) 97,87 %
12.12.2021 06:30 3,8 C 2,8 C 2,2 C 97 % 1021,6 hPa 0,0 l/m 0 min 0 min 0 W/m 12,9 km/h (3 Bft) 97,87 %
12.12.2021 06:32 3,8 C 2,8 C 2,2 C 97 % 1021,6 hPa 0,0 l/m 0 min 0 min 0 W/m 16,1 km/h (3 Bft) 95,74 %
12.12.2021 06:34 3,8 C 2,8 C 2,2 C 97 % 1021,6 hPa 0,0 l/m 0 min 0 min 0 W/m 12,9 km/h (3 Bft) 97,87 %
12.12.2021 06:36 3,8 C 2,8 C 2,2 C 97 % 1021,6 hPa 0,0 l/m 0 min 0 min 0 W/m 16,1 km/h (3 Bft) 100,00 %
12.12.2021 06:38 3,8 C 2,8 C 2,2 C 97 % 1021,6 hPa 0,0 l/m 0 min 0 min 0 W/m 16,1 km/h (3 Bft) 100,00 %
12.12.2021 06:40 3,8 C 2,8 C 2,2 C 97 % 1021,7 hPa 0,0 l/m 0 min 0 min 0 W/m 16,1 km/h (3 Bft) 100,00 %
12.12.2021 06:42 3,8 C 3,3 C 2,2 C 97 % 1021,7 hPa 0,0 l/m 0 min 0 min 0 W/m 16,1 km/h (3 Bft) 100,00 %
12.12.2021 06:44 3,8 C 3,3 C 2,2 C 97 % 1021,7 hPa 0,2 l/m 0 min 0 min 0 W/m 16,1 km/h (3 Bft) 100,00 %
12.12.2021 06:46 3,8 C 3,3 C 2,2 C 97 % 1021,7 hPa 0,0 l/m 0 min 0 min 0 W/m 16,1 km/h (3 Bft) 97,87 %
12.12.2021 06:48 3,8 C 3,3 C 2,2 C 97 % 1021,6 hPa 0,0 l/m 0 min 0 min 0 W/m 16,1 km/h (3 Bft) 100,00 %
12.12.2021 06:50 3,9 C 3,3 C 2,2 C 97 % 1021,6 hPa 0,0 l/m 0 min 0 min 0 W/m 19,3 km/h (3 Bft) 100,00 %
12.12.2021 06:52 3,9 C 3,3 C 2,2 C 97 % 1021,6 hPa 0,0 l/m 0 min 0 min 0 W/m 16,1 km/h (3 Bft) 100,00 %
12.12.2021 06:54 3,9 C 3,3 C 2,2 C 97 % 1021,6 hPa 0,0 l/m 0 min 0 min 0 W/m 19,3 km/h (3 Bft) 100,00 %
12.12.2021 06:56 3,9 C 3,3 C 2,2 C 97 % 1021,5 hPa 0,0 l/m 0 min 0 min 0 W/m 16,1 km/h (3 Bft) 100,00 %
12.12.2021 06:58 3,9 C 3,3 C 2,2 C 97 % 1021,6 hPa 0,0 l/m 0 min 0 min 0 W/m 16,1 km/h (3 Bft) 100,00 %
12.12.2021 07:00 3,9 C 3,3 C 2,2 C 97 % 1021,5 hPa 0,0 l/m 0 min 0 min 0 W/m 19,3 km/h (3 Bft) 100,00 %
12.12.2021 07:02 3,9 C 3,3 C 2,2 C 97 % 1021,5 hPa 0,2 l/m 0 min 0 min 0 W/m 16,1 km/h (3 Bft) 100,00 %
12.12.2021 07:04 3,9 C 3,3 C 2,2 C 97 % 1021,6 hPa 0,0 l/m 0 min 0 min 0 W/m 16,1 km/h (3 Bft) 100,00 %
12.12.2021 07:06 3,9 C 3,3 C 2,2 C 97 % 1021,6 hPa 0,0 l/m 0 min 0 min 0 W/m 12,9 km/h (3 Bft) 97,87 %
12.12.2021 07:08 3,9 C 3,3 C 2,2 C 97 % 1021,6 hPa 0,0 l/m 0 min 0 min 0 W/m 22,5 km/h (4 Bft) 100,00 %
12.12.2021 07:10 3,9 C 3,3 C 2,2 C 97 % 1021,6 hPa 0,0 l/m 0 min 0 min 0 W/m 19,3 km/h (3 Bft) 100,00 %
12.12.2021 07:12 3,9 C 3,3 C 2,2 C 97 % 1021,6 hPa 0,0 l/m 0 min 0 min 0 W/m 16,1 km/h (3 Bft) 100,00 %
12.12.2021 07:14 3,9 C 3,3 C 2,2 C 97 % 1021,6 hPa 0,0 l/m 0 min 0 min 0 W/m 16,1 km/h (3 Bft) 97,87 %
12.12.2021 07:16 3,9 C 3,3 C 2,2 C 97 % 1021,7 hPa 0,2 l/m 0 min 0 min 0 W/m 16,1 km/h (3 Bft) 95,74 %
12.12.2021 07:18 3,9 C 3,3 C 2,2 C 97 % 1021,6 hPa 0,0 l/m 0 min 0 min 0 W/m 16,1 km/h (3 Bft) 100,00 %
12.12.2021 07:20 4,0 C 3,3 C 2,2 C 97 % 1021,7 hPa 0,0 l/m 0 min 0 min 0 W/m 16,1 km/h (3 Bft) 100,00 %
12.12.2021 07:22 4,0 C 3,3 C 2,2 C 97 % 1021,7 hPa 0,0 l/m 0 min 0 min 0 W/m 16,1 km/h (3 Bft) 95,65 %
12.12.2021 07:24 4,0 C 3,3 C 2,2 C 97 % 1021,7 hPa 0,0 l/m 0 min 0 min 0 W/m 12,9 km/h (3 Bft) 97,87 %
12.12.2021 07:26 4,1 C 3,3 C 2,2 C 97 % 1021,7 hPa 0,2 l/m 0 min 0 min 0 W/m 19,3 km/h (3 Bft) 97,87 %
12.12.2021 07:28 4,1 C 3,3 C 2,2 C 97 % 1021,8 hPa 0,0 l/m 0 min 0 min 0 W/m 19,3 km/h (3 Bft) 97,87 %
12.12.2021 07:30 4,1 C 3,3 C 2,2 C 97 % 1021,8 hPa 0,0 l/m 0 min 0 min 0 W/m 16,1 km/h (3 Bft) 97,87 %
12.12.2021 07:32 4,1 C 3,3 C 2,2 C 98 % 1021,8 hPa 0,0 l/m 0 min 0 min 0 W/m 12,9 km/h (3 Bft) 96,15 %
12.12.2021 07:34 4,1 C 3,3 C 2,2 C 98 % 1021,8 hPa 0,0 l/m 0 min 0 min 0 W/m 16,1 km/h (3 Bft) 97,87 %
12.12.2021 07:36 4,1 C 3,3 C 2,2 C 98 % 1021,8 hPa 0,2 l/m 0 min 0 min 0 W/m 6,4 km/h (2 Bft) 97,87 %
12.12.2021 07:38 4,1 C 3,3 C 2,2 C 98 % 1021,8 hPa 0,0 l/m 0 min 0 min 0 W/m 12,9 km/h (3 Bft) 97,87 %
12.12.2021 07:40 4,1 C 3,3 C 2,2 C 98 % 1021,8 hPa 0,0 l/m 0 min 0 min 0 W/m 19,3 km/h (3 Bft) 97,87 %
12.12.2021 07:42 4,2 C 3,3 C 2,2 C 98 % 1021,8 hPa 0,0 l/m 0 min 0 min 0 W/m 16,1 km/h (3 Bft) 97,87 %
12.12.2021 07:44 4,2 C 3,3 C 2,8 C 98 % 1021,7 hPa 0,0 l/m 0 min 0 min 0 W/m 19,3 km/h (3 Bft) 97,87 %
12.12.2021 07:46 4,2 C 3,3 C 2,8 C 98 % 1021,7 hPa 0,2 l/m 0 min 0 min 0 W/m 12,9 km/h (3 Bft) 95,65 %
12.12.2021 07:48 4,2 C 3,3 C 2,8 C 98 % 1021,7 hPa 0,0 l/m 0 min 0 min 0 W/m 12,9 km/h (3 Bft) 97,87 %
12.12.2021 07:50 4,2 C 3,3 C 2,8 C 98 % 1021,9 hPa 0,0 l/m 0 min 0 min 0 W/m 9,7 km/h (2 Bft) 97,87 %
12.12.2021 07:52 4,2 C 3,3 C 2,8 C 98 % 1021,8 hPa 0,0 l/m 0 min 0 min 0 W/m 6,4 km/h (2 Bft) 95,74 %
12.12.2021 07:54 4,2 C 3,3 C 2,8 C 98 % 1021,8 hPa 0,0 l/m 0 min 0 min 0 W/m 12,9 km/h (3 Bft) 97,87 %
12.12.2021 07:56 4,2 C 3,3 C 2,8 C 98 % 1021,8 hPa 0,0 l/m 0 min 0 min 0 W/m 12,9 km/h (3 Bft) 100,00 %
12.12.2021 07:58 4,2 C 3,3 C 2,8 C 98 % 1021,8 hPa 0,0 l/m 0 min 0 min 0 W/m 9,7 km/h (2 Bft) 100,00 %
12.12.2021 08:00 4,3 C 3,3 C 2,8 C 98 % 1021,8 hPa 0,0 l/m 0 min 0 min 0 W/m 16,1 km/h (3 Bft) 97,87 %
12.12.2021 08:02 4,3 C 3,3 C 2,8 C 98 % 1021,9 hPa 0,0 l/m 0 min 2 min 0 W/m 12,9 km/h (3 Bft) 100,00 %
12.12.2021 08:04 4,3 C 3,3 C 2,8 C 98 % 1021,9 hPa 0,0 l/m 0 min 2 min 0 W/m 12,9 km/h (3 Bft) 100,00 %
12.12.2021 08:06 4,3 C 3,3 C 2,8 C 98 % 1021,9 hPa 0,0 l/m 0 min 2 min 0 W/m 9,7 km/h (2 Bft) 100,00 %
12.12.2021 08:08 4,3 C 3,3 C 2,8 C 98 % 1021,9 hPa 0,0 l/m 0 min 0 min 0 W/m 6,4 km/h (2 Bft) 100,00 %
12.12.2021 08:10 4,3 C 3,3 C 2,8 C 98 % 1021,9 hPa 0,2 l/m 0 min 0 min 0 W/m 16,1 km/h (3 Bft) 97,87 %
12.12.2021 08:12 4,3 C 3,3 C 2,8 C 98 % 1021,8 hPa 0,0 l/m 0 min 0 min 0 W/m 12,9 km/h (3 Bft) 97,87 %
12.12.2021 08:14 4,3 C 3,3 C 2,8 C 98 % 1021,8 hPa 0,0 l/m 0 min 0 min 0 W/m 9,7 km/h (2 Bft) 97,87 %
12.12.2021 08:16 4,3 C 3,3 C 2,8 C 98 % 1021,7 hPa 0,0 l/m 0 min 0 min 0 W/m 9,7 km/h (2 Bft) 96,23 %
12.12.2021 08:18 4,3 C 3,9 C 2,8 C 98 % 1021,8 hPa 0,0 l/m 0 min 0 min 0 W/m 19,3 km/h (3 Bft) 97,83 %
12.12.2021 08:20 4,3 C 3,3 C 2,8 C 98 % 1021,8 hPa 0,0 l/m 0 min 0 min 0 W/m 19,3 km/h (3 Bft) 97,87 %
12.12.2021 08:22 4,3 C 3,3 C 2,8 C 98 % 1021,8 hPa 0,0 l/m 0 min 0 min 0 W/m 19,3 km/h (3 Bft) 95,74 %
12.12.2021 08:24 4,3 C 3,9 C 2,8 C 98 % 1021,7 hPa 0,0 l/m 0 min 0 min 0 W/m 12,9 km/h (3 Bft) 95,74 %
12.12.2021 08:29 4,3 C 3,9 C 2,8 C 98 % 1021,7 hPa 0,0 l/m 0 min 0 min 0 W/m 16,1 km/h (3 Bft) 97,01 %
12.12.2021 08:30 4,3 C 3,9 C 2,8 C 98 % 1021,7 hPa 0,0 l/m 0 min 0 min 0 W/m 12,9 km/h (3 Bft) 100,00 %
12.12.2021 08:32 4,3 C 3,9 C 2,8 C 98 % 1021,7 hPa 0,0 l/m 0 min 0 min 0 W/m 16,1 km/h (3 Bft) 93,62 %
12.12.2021 08:34 4,4 C 3,9 C 2,8 C 98 % 1021,7 hPa 0,0 l/m 0 min 0 min 0 W/m 16,1 km/h (3 Bft) 100,00 %
12.12.2021 08:35 4,4 C 3,9 C 2,8 C 98 % 1021,7 hPa 0,0 l/m 0 min 0 min 0 W/m 16,1 km/h (3 Bft) 89,47 %
12.12.2021 08:38 4,4 C 3,9 C 2,8 C 98 % 1021,8 hPa 0,0 l/m 0 min 0 min 0 W/m 6,4 km/h (2 Bft) 97,30 %
12.12.2021 08:43 4,4 C 3,9 C 2,8 C 98 % 1021,8 hPa 0,2 l/m 0 min 0 min 0 W/m 16,1 km/h (3 Bft) 100,00 %
12.12.2021 08:44 4,4 C 3,9 C 2,8 C 98 % 1021,8 hPa 0,0 l/m 0 min 0 min 0 W/m 6,4 km/h (2 Bft) 91,30 %
12.12.2021 08:46 4,4 C 3,9 C 2,8 C 98 % 1021,7 hPa 0,0 l/m 0 min 0 min 0 W/m 6,4 km/h (2 Bft) 93,62 %
12.12.2021 08:48 4,4 C 3,9 C 2,8 C 98 % 1021,7 hPa 0,0 l/m 0 min 0 min 0 W/m 16,1 km/h (3 Bft) 95,74 %
12.12.2021 08:50 4,4 C 3,9 C 2,8 C 98 % 1021,8 hPa 0,0 l/m 0 min 0 min 0 W/m 12,9 km/h (3 Bft) 95,74 %
12.12.2021 08:52 4,5 C 3,9 C 2,8 C 98 % 1021,8 hPa 0,0 l/m 0 min 0 min 0 W/m 12,9 km/h (3 Bft) 47,73 %
12.12.2021 08:54 4,5 C 3,9 C 2,8 C 98 % 1021,9 hPa 0,0 l/m 0 min 0 min 0 W/m 12,9 km/h (3 Bft) 95,74 %
12.12.2021 08:56 4,5 C 3,9 C 2,8 C 98 % 1021,9 hPa 0,0 l/m 0 min 0 min 0 W/m 12,9 km/h (3 Bft) 95,65 %
12.12.2021 08:58 4,6 C 3,9 C 2,8 C 98 % 1021,9 hPa 0,0 l/m 0 min 0 min 0 W/m 12,9 km/h (3 Bft) 95,74 %
12.12.2021 09:00 4,6 C 3,9 C 2,8 C 98 % 1021,9 hPa 0,0 l/m 0 min 0 min 0 W/m 12,9 km/h (3 Bft) 95,74 %
12.12.2021 09:02 4,6 C 3,9 C 3,3 C 98 % 1021,8 hPa 0,0 l/m 0 min 0 min 5 W/m 12,9 km/h (3 Bft) 91,49 %
12.12.2021 09:04 4,6 C 3,9 C 3,3 C 98 % 1021,8 hPa 0,0 l/m 0 min 0 min 5 W/m 12,9 km/h (3 Bft) 95,74 %
12.12.2021 09:06 4,6 C 3,9 C 3,3 C 98 % 1021,8 hPa 0,0 l/m 0 min 0 min 5 W/m 9,7 km/h (2 Bft) 97,83 %
12.12.2021 09:08 4,6 C 3,9 C 3,3 C 98 % 1021,8 hPa 0,0 l/m 0 min 0 min 7 W/m 12,9 km/h (3 Bft) 97,87 %
12.12.2021 09:10 4,7 C 3,9 C 3,3 C 98 % 1021,9 hPa 0,0 l/m 0 min 0 min 6 W/m 12,9 km/h (3 Bft) 97,87 %
12.12.2021 09:12 4,7 C 3,9 C 3,3 C 99 % 1021,9 hPa 0,0 l/m 0 min 0 min 7 W/m 12,9 km/h (3 Bft) 100,00 %
12.12.2021 09:14 4,7 C 3,9 C 3,3 C 99 % 1021,9 hPa 0,0 l/m 0 min 0 min 7 W/m 6,4 km/h (2 Bft) 100,00 %
12.12.2021 09:16 4,7 C 3,9 C 3,3 C 99 % 1022,0 hPa 0,0 l/m 0 min 0 min 7 W/m 12,9 km/h (3 Bft) 100,00 %
12.12.2021 09:18 4,8 C 4,4 C 3,3 C 99 % 1022,0 hPa 0,0 l/m 0 min 0 min 7 W/m 12,9 km/h (3 Bft) 97,83 %
12.12.2021 09:20 4,8 C 4,4 C 3,3 C 99 % 1022,0 hPa 0,0 l/m 0 min 0 min 7 W/m 22,5 km/h (4 Bft) 97,87 %
12.12.2021 09:22 4,8 C 4,4 C 3,3 C 99 % 1022,0 hPa 0,0 l/m 0 min 0 min 9 W/m 12,9 km/h (3 Bft) 97,87 %
12.12.2021 09:24 4,8 C 4,4 C 3,3 C 98 % 1022,0 hPa 0,0 l/m 0 min 0 min 9 W/m 16,1 km/h (3 Bft) 97,87 %
12.12.2021 09:26 4,8 C 4,4 C 3,3 C 98 % 1022,1 hPa 0,0 l/m 0 min 0 min 9 W/m 12,9 km/h (3 Bft) 97,87 %
12.12.2021 09:28 4,9 C 4,4 C 3,3 C 98 % 1022,1 hPa 0,0 l/m 0 min 0 min 9 W/m 12,9 km/h (3 Bft) 95,74 %
12.12.2021 09:30 4,9 C 4,4 C 3,3 C 98 % 1022,1 hPa 0,0 l/m 0 min 0 min 9 W/m 12,9 km/h (3 Bft) 97,83 %
12.12.2021 09:32 4,9 C 4,4 C 3,3 C 98 % 1022,1 hPa 0,0 l/m 0 min 0 min 9 W/m 16,1 km/h (3 Bft) 98,15 %
12.12.2021 09:34 4,9 C 4,4 C 3,3 C 98 % 1022,1 hPa 0,0 l/m 0 min 0 min 9 W/m 12,9 km/h (3 Bft) 97,87 %
12.12.2021 09:36 4,9 C 4,4 C 3,3 C 99 % 1022,1 hPa 0,0 l/m 0 min 0 min 7 W/m 12,9 km/h (3 Bft) 97,87 %
12.12.2021 09:38 4,9 C 4,4 C 3,3 C 99 % 1022,2 hPa 0,0 l/m 0 min 0 min 7 W/m 6,4 km/h (2 Bft) 97,83 %
12.12.2021 09:40 5,0 C 4,4 C 3,3 C 99 % 1022,2 hPa 0,0 l/m 0 min 0 min 6 W/m 12,9 km/h (3 Bft) 97,87 %
12.12.2021 09:42 5,0 C 4,4 C 3,3 C 99 % 1022,2 hPa 0,0 l/m 0 min 0 min 5 W/m 9,7 km/h (2 Bft) 97,87 %
12.12.2021 09:44 5,0 C 4,4 C 3,3 C 99 % 1022,2 hPa 0,0 l/m 0 min 0 min 6 W/m 12,9 km/h (3 Bft) 97,87 %
12.12.2021 09:46 5,1 C 4,4 C 3,3 C 99 % 1022,2 hPa 0,0 l/m 0 min 0 min 8 W/m 6,4 km/h (2 Bft) 97,87 %
12.12.2021 09:48 5,1 C 4,4 C 3,3 C 99 % 1022,3 hPa 0,0 l/m 0 min 0 min 11 W/m 9,7 km/h (2 Bft) 95,74 %
12.12.2021 09:50 5,1 C 4,4 C 3,3 C 99 % 1022,4 hPa 0,0 l/m 0 min 0 min 11 W/m 12,9 km/h (3 Bft) 97,83 %
12.12.2021 09:52 5,1 C 4,4 C 3,3 C 99 % 1022,4 hPa 0,0 l/m 0 min 0 min 11 W/m 6,4 km/h (2 Bft) 97,87 %
12.12.2021 09:54 5,1 C 4,4 C 3,3 C 99 % 1022,5 hPa 0,0 l/m 0 min 0 min 12 W/m 6,4 km/h (2 Bft) 97,87 %
12.12.2021 09:56 5,1 C 4,4 C 3,3 C 99 % 1022,5 hPa 0,0 l/m 0 min 0 min 11 W/m 9,7 km/h (2 Bft) 100,00 %
12.12.2021 09:58 5,1 C 4,4 C 3,9 C 99 % 1022,5 hPa 0,0 l/m 0 min 0 min 11 W/m 6,4 km/h (2 Bft) 97,87 %
12.12.2021 10:00 5,2 C 4,4 C 3,9 C 99 % 1022,5 hPa 0,0 l/m 0 min 0 min 12 W/m 6,4 km/h (2 Bft) 97,87 %
12.12.2021 10:02 5,2 C 4,4 C 3,9 C 99 % 1022,4 hPa 0,0 l/m 0 min 0 min 12 W/m 6,4 km/h (2 Bft) 100,00 %
12.12.2021 10:04 5,2 C 4,4 C 3,9 C 99 % 1022,4 hPa 0,0 l/m 0 min 0 min 14 W/m 6,4 km/h (2 Bft) 100,00 %
12.12.2021 10:06 5,2 C 4,4 C 3,9 C 99 % 1022,3 hPa 0,0 l/m 0 min 0 min 16 W/m 6,4 km/h (2 Bft) 100,00 %
12.12.2021 10:08 5,2 C 4,4 C 3,9 C 99 % 1022,2 hPa 0,0 l/m 0 min 0 min 15 W/m 6,4 km/h (2 Bft) 100,00 %
12.12.2021 10:10 5,3 C 5,0 C 3,9 C 99 % 1022,4 hPa 0,0 l/m 0 min 0 min 14 W/m 6,4 km/h (2 Bft) 100,00 %
12.12.2021 10:12 5,3 C 5,0 C 3,9 C 99 % 1022,4 hPa 0,0 l/m 0 min 0 min 14 W/m 6,4 km/h (2 Bft) 97,87 %
12.12.2021 10:14 5,3 C 5,0 C 3,9 C 99 % 1022,4 hPa 0,0 l/m 0 min 0 min 13 W/m 3,2 km/h (1 Bft) 100,00 %
12.12.2021 10:16 5,3 C 5,0 C 3,9 C 99 % 1022,5 hPa 0,0 l/m 0 min 0 min 14 W/m 9,7 km/h (2 Bft) 97,87 %
12.12.2021 10:18 5,3 C 5,0 C 3,9 C 99 % 1022,4 hPa 0,0 l/m 0 min 0 min 18 W/m 6,4 km/h (2 Bft) 97,87 %
12.12.2021 10:20 5,4 C 5,0 C 3,9 C 99 % 1022,5 hPa 0,0 l/m 0 min 0 min 19 W/m 6,4 km/h (2 Bft) 100,00 %
12.12.2021 10:22 5,4 C 5,0 C 3,9 C 99 % 1022,5 hPa 0,0 l/m 0 min 0 min 18 W/m 6,4 km/h (2 Bft) 100,00 %
12.12.2021 10:24 5,4 C 5,0 C 3,9 C 99 % 1022,6 hPa 0,0 l/m 0 min 0 min 18 W/m 12,9 km/h (3 Bft) 100,00 %
12.12.2021 10:26 5,4 C 5,0 C 3,9 C 99 % 1022,6 hPa 0,0 l/m 0 min 0 min 19 W/m 6,4 km/h (2 Bft) 100,00 %
12.12.2021 10:28 5,4 C 5,0 C 3,9 C 99 % 1022,6 hPa 0,0 l/m 0 min 0 min 19 W/m 6,4 km/h (2 Bft) 100,00 %
12.12.2021 10:30 5,5 C 5,0 C 3,9 C 99 % 1022,6 hPa 0,0 l/m 0 min 0 min 19 W/m 6,4 km/h (2 Bft) 100,00 %
12.12.2021 10:32 5,5 C 5,0 C 3,9 C 99 % 1022,5 hPa 0,0 l/m 0 min 0 min 17 W/m 6,4 km/h (2 Bft) 100,00 %
12.12.2021 10:34 5,5 C 5,0 C 3,9 C 99 % 1022,5 hPa 0,0 l/m 0 min 0 min 19 W/m 6,4 km/h (2 Bft) 97,87 %
12.12.2021 10:36 5,6 C 5,0 C 3,9 C 99 % 1022,5 hPa 0,0 l/m 0 min 0 min 18 W/m 6,4 km/h (2 Bft) 97,87 %
12.12.2021 10:38 5,6 C 5,0 C 3,9 C 99 % 1022,6 hPa 0,0 l/m 0 min 0 min 17 W/m 6,4 km/h (2 Bft) 100,00 %
12.12.2021 10:40 5,6 C 5,0 C 3,9 C 99 % 1022,6 hPa 0,0 l/m 0 min 0 min 14 W/m 6,4 km/h (2 Bft) 97,96 %
12.12.2021 10:42 5,6 C 5,0 C 3,9 C 99 % 1022,6 hPa 0,0 l/m 0 min 0 min 16 W/m 6,4 km/h (2 Bft) 100,00 %
12.12.2021 10:44 5,6 C 5,0 C 3,9 C 99 % 1022,6 hPa 0,0 l/m 0 min 0 min 16 W/m 9,7 km/h (2 Bft) 100,00 %
12.12.2021 10:46 5,6 C 5,0 C 3,9 C 99 % 1022,6 hPa 0,0 l/m 0 min 0 min 18 W/m 6,4 km/h (2 Bft) 100,00 %
12.12.2021 10:48 5,6 C 5,0 C 3,9 C 99 % 1022,6 hPa 0,0 l/m 0 min 0 min 16 W/m 6,4 km/h (2 Bft) 95,74 %
12.12.2021 10:50 5,7 C 5,0 C 4,4 C 99 % 1022,6 hPa 0,0 l/m 0 min 0 min 20 W/m 6,4 km/h (2 Bft) 100,00 %
12.12.2021 10:52 5,7 C 5,0 C 4,4 C 99 % 1022,6 hPa 0,0 l/m 0 min 0 min 24 W/m 6,4 km/h (2 Bft) 100,00 %
12.12.2021 10:54 5,7 C 5,0 C 4,4 C 99 % 1022,6 hPa 0,0 l/m 0 min 0 min 26 W/m 12,9 km/h (3 Bft) 100,00 %
12.12.2021 10:56 5,7 C 5,6 C 4,4 C 99 % 1022,6 hPa 0,0 l/m 0 min 0 min 29 W/m 3,2 km/h (1 Bft) 100,00 %
12.12.2021 10:58 5,8 C 5,6 C 4,4 C 99 % 1022,6 hPa 0,0 l/m 0 min 0 min 28 W/m 6,4 km/h (2 Bft) 97,87 %
12.12.2021 11:00 5,8 C 5,6 C 4,4 C 99 % 1022,6 hPa 0,0 l/m 0 min 0 min 27 W/m 6,4 km/h (2 Bft) 100,00 %
12.12.2021 11:02 5,8 C 5,6 C 4,4 C 99 % 1022,6 hPa 0,0 l/m 0 min 0 min 29 W/m 6,4 km/h (2 Bft) 100,00 %
12.12.2021 11:04 5,8 C 5,6 C 4,4 C 99 % 1022,6 hPa 0,0 l/m 0 min 0 min 29 W/m 3,2 km/h (1 Bft) 97,87 %
12.12.2021 11:06 5,8 C 5,6 C 4,4 C 99 % 1022,6 hPa 0,0 l/m 0 min 0 min 27 W/m 6,4 km/h (2 Bft) 100,00 %
12.12.2021 11:08 5,8 C 5,6 C 4,4 C 99 % 1022,6 hPa 0,0 l/m 0 min 0 min 22 W/m 6,4 km/h (2 Bft) 95,74 %
12.12.2021 11:10 5,9 C 5,6 C 4,4 C 99 % 1022,6 hPa 0,0 l/m 0 min 0 min 20 W/m 12,9 km/h (3 Bft) 95,74 %
12.12.2021 11:12 5,9 C 5,6 C 4,4 C 99 % 1022,6 hPa 0,0 l/m 0 min 0 min 21 W/m 6,4 km/h (2 Bft) 93,62 %
12.12.2021 11:14 5,9 C 5,6 C 4,4 C 99 % 1022,6 hPa 0,0 l/m 0 min 0 min 23 W/m 12,9 km/h (3 Bft) 95,35 %
12.12.2021 11:16 6,0 C 5,6 C 4,4 C 99 % 1022,6 hPa 0,0 l/m 0 min 0 min 27 W/m 19,3 km/h (3 Bft) 95,74 %
12.12.2021 11:18 6,0 C 5,6 C 4,4 C 99 % 1022,6 hPa 0,0 l/m 0 min 0 min 28 W/m 6,4 km/h (2 Bft) 93,62 %
12.12.2021 11:20 6,0 C 5,6 C 4,4 C 99 % 1022,6 hPa 0,0 l/m 0 min 0 min 29 W/m 3,2 km/h (1 Bft) 95,74 %
12.12.2021 11:22 6,0 C 5,6 C 4,4 C 99 % 1022,6 hPa 0,0 l/m 0 min 0 min 29 W/m 6,4 km/h (2 Bft) 91,49 %
12.12.2021 11:24 6,0 C 5,6 C 4,4 C 99 % 1022,6 hPa 0,0 l/m 0 min 0 min 31 W/m 12,9 km/h (3 Bft) 93,62 %
12.12.2021 11:26 6,0 C 5,6 C 4,4 C 99 % 1022,7 hPa 0,0 l/m 0 min 0 min 31 W/m 6,4 km/h (2 Bft) 95,56 %
12.12.2021 11:28 6,0 C 5,6 C 4,4 C 99 % 1022,6 hPa 0,0 l/m 0 min 0 min 33 W/m 3,2 km/h (1 Bft) 93,62 %
12.12.2021 11:30 6,0 C 5,6 C 4,4 C 99 % 1022,6 hPa 0,0 l/m 0 min 0 min 38 W/m 6,4 km/h (2 Bft) 91,49 %
12.12.2021 11:32 6,0 C 5,6 C 4,4 C 99 % 1022,6 hPa 0,0 l/m 0 min 0 min 38 W/m 6,4 km/h (2 Bft) 93,62 %
12.12.2021 11:34 6,1 C 5,6 C 4,4 C 99 % 1022,7 hPa 0,0 l/m 0 min 0 min 40 W/m 3,2 km/h (1 Bft) 93,62 %
12.12.2021 11:36 6,1 C 5,6 C 4,4 C 99 % 1022,6 hPa 0,0 l/m 0 min 0 min 45 W/m 6,4 km/h (2 Bft) 91,30 %
12.12.2021 11:38 6,1 C 5,6 C 4,4 C 99 % 1022,7 hPa 0,0 l/m 0 min 0 min 44 W/m 3,2 km/h (1 Bft) 89,36 %
12.12.2021 11:40 6,1 C 5,6 C 4,4 C 99 % 1022,6 hPa 0,0 l/m 0 min 0 min 46 W/m 6,4 km/h (2 Bft) 93,62 %
12.12.2021 11:42 6,1 C 5,6 C 4,4 C 99 % 1022,6 hPa 0,0 l/m 0 min 0 min 43 W/m 3,2 km/h (1 Bft) 93,62 %
12.12.2021 11:44 6,1 C 5,6 C 4,4 C 99 % 1022,6 hPa 0,0 l/m 0 min 0 min 43 W/m 3,2 km/h (1 Bft) 89,36 %
12.12.2021 11:46 6,1 C 5,6 C 4,4 C 99 % 1022,6 hPa 0,0 l/m 0 min 0 min 40 W/m 6,4 km/h (2 Bft) 93,62 %
12.12.2021 11:48 6,1 C 5,6 C 4,4 C 99 % 1022,6 hPa 0,0 l/m 0 min 0 min 41 W/m 6,4 km/h (2 Bft) 91,30 %
12.12.2021 11:50 6,2 C 5,6 C 5,0 C 99 % 1022,6 hPa 0,0 l/m 0 min 0 min 40 W/m 12,9 km/h (3 Bft) 93,62 %
12.12.2021 11:52 6,2 C 5,6 C 5,0 C 99 % 1022,6 hPa 0,0 l/m 0 min 0 min 37 W/m 0,0 km/h (0 Bft) 95,74 %
12.12.2021 11:54 6,2 C 5,6 C 5,0 C 99 % 1022,7 hPa 0,0 l/m 0 min 0 min 32 W/m 0,0 km/h (0 Bft) 97,87 %
12.12.2021 11:56 6,2 C 5,6 C 5,0 C 99 % 1022,6 hPa 0,0 l/m 0 min 0 min 32 W/m 0,0 km/h (0 Bft) 100,00 %
12.12.2021 11:58 6,2 C 5,6 C 5,0 C 99 % 1022,6 hPa 0,0 l/m 0 min 0 min 37 W/m 0,0 km/h (0 Bft) 100,00 %
12.12.2021 12:00 6,2 C 6,1 C 5,0 C 99 % 1022,7 hPa 0,0 l/m 0 min 0 min 40 W/m 0,0 km/h (0 Bft) 100,00 %
12.12.2021 12:02 6,3 C 6,1 C 5,0 C 99 % 1022,6 hPa 0,0 l/m 0 min 0 min 41 W/m 0,0 km/h (0 Bft) 100,00 %
12.12.2021 12:04 6,3 C 6,1 C 5,0 C 99 % 1022,7 hPa 0,0 l/m 0 min 0 min 38 W/m 0,0 km/h (0 Bft) 100,00 %
12.12.2021 12:07 6,3 C 6,1 C 5,0 C 99 % 1022,7 hPa 0,0 l/m 0 min 0 min 26 W/m 0,0 km/h (0 Bft) 100,00 %
12.12.2021 12:08 6,4 C 6,1 C 5,0 C 99 % 1022,7 hPa 0,0 l/m 0 min 0 min 23 W/m 0,0 km/h (0 Bft) 100,00 %
12.12.2021 12:10 6,4 C 6,1 C 5,0 C 99 % 1022,6 hPa 0,0 l/m 0 min 0 min 23 W/m 0,0 km/h (0 Bft) 100,00 %
12.12.2021 12:12 6,4 C 6,1 C 5,0 C 99 % 1022,7 hPa 0,0 l/m 0 min 0 min 19 W/m 0,0 km/h (0 Bft) 100,00 %
12.12.2021 12:14 6,5 C 6,1 C 5,0 C 99 % 1022,7 hPa 0,0 l/m 0 min 0 min 18 W/m 0,0 km/h (0 Bft) 100,00 %
12.12.2021 12:16 6,5 C 6,1 C 5,0 C 99 % 1022,7 hPa 0,0 l/m 0 min 0 min 17 W/m 12,9 km/h (3 Bft) 97,87 %
12.12.2021 12:18 6,7 C 6,1 C 5,0 C 99 % 1022,6 hPa 0,0 l/m 0 min 0 min 17 W/m 16,1 km/h (3 Bft) 100,00 %
12.12.2021 12:20 6,8 C 6,7 C 5,6 C 99 % 1022,6 hPa 0,0 l/m 0 min 0 min 19 W/m 16,1 km/h (3 Bft) 100,00 %
12.12.2021 12:22 6,8 C 6,7 C 5,6 C 99 % 1022,6 hPa 0,0 l/m 0 min 0 min 23 W/m 12,9 km/h (3 Bft) 100,00 %
12.12.2021 12:24 7,0 C 6,7 C 5,6 C 99 % 1022,7 hPa 0,0 l/m 0 min 0 min 28 W/m 12,9 km/h (3 Bft) 100,00 %
12.12.2021 12:26 7,1 C 6,7 C 5,6 C 99 % 1022,7 hPa 0,0 l/m 0 min 2 min 37 W/m 25,7 km/h (4 Bft) 100,00 %
12.12.2021 12:28 7,1 C 6,7 C 5,6 C 99 % 1022,6 hPa 0,0 l/m 0 min 2 min 42 W/m 19,3 km/h (3 Bft) 100,00 %
12.12.2021 12:30 7,2 C 6,7 C 5,6 C 99 % 1022,7 hPa 0,0 l/m 0 min 0 min 42 W/m 16,1 km/h (3 Bft) 100,00 %
12.12.2021 12:32 7,2 C 6,7 C 5,6 C 100 % 1022,6 hPa 0,0 l/m 0 min 0 min 42 W/m 16,1 km/h (3 Bft) 100,00 %
12.12.2021 12:34 7,3 C 6,7 C 5,6 C 100 % 1022,6 hPa 0,0 l/m 0 min 0 min 41 W/m 16,1 km/h (3 Bft) 100,00 %
12.12.2021 12:36 7,3 C 6,7 C 5,6 C 100 % 1022,7 hPa 0,0 l/m 0 min 0 min 43 W/m 16,1 km/h (3 Bft) 100,00 %
12.12.2021 12:38 7,3 C 6,7 C 5,6 C 100 % 1022,7 hPa 0,0 l/m 0 min 0 min 45 W/m 16,1 km/h (3 Bft) 100,00 %
12.12.2021 12:40 7,4 C 7,2 C 5,6 C 100 % 1022,7 hPa 0,0 l/m 0 min 0 min 45 W/m 12,9 km/h (3 Bft) 100,00 %
12.12.2021 12:42 7,4 C 7,2 C 5,6 C 99 % 1022,7 hPa 0,0 l/m 0 min 0 min 44 W/m 19,3 km/h (3 Bft) 100,00 %
12.12.2021 12:44 7,4 C 7,2 C 5,6 C 99 % 1022,7 hPa 0,0 l/m 0 min 0 min 43 W/m 12,9 km/h (3 Bft) 100,00 %
12.12.2021 12:46 7,4 C 7,2 C 5,6 C 99 % 1022,7 hPa 0,0 l/m 0 min 0 min 42 W/m 19,3 km/h (3 Bft) 100,00 %
12.12.2021 12:48 7,4 C 7,2 C 6,1 C 99 % 1022,7 hPa 0,0 l/m 0 min 0 min 42 W/m 12,9 km/h (3 Bft) 100,00 %
12.12.2021 12:50 7,5 C 7,2 C 6,1 C 99 % 1022,7 hPa 0,0 l/m 0 min 0 min 43 W/m 22,5 km/h (4 Bft) 100,00 %
12.12.2021 12:52 7,5 C 7,2 C 6,1 C 99 % 1022,7 hPa 0,0 l/m 0 min 0 min 46 W/m 19,3 km/h (3 Bft) 100,00 %
12.12.2021 12:54 7,6 C 7,2 C 6,1 C 99 % 1022,7 hPa 0,0 l/m 0 min 0 min 45 W/m 19,3 km/h (3 Bft) 100,00 %
12.12.2021 12:56 7,6 C 7,2 C 6,1 C 99 % 1022,7 hPa 0,0 l/m 0 min 0 min 43 W/m 12,9 km/h (3 Bft) 100,00 %
12.12.2021 12:58 7,6 C 7,2 C 6,1 C 100 % 1022,7 hPa 0,0 l/m 0 min 0 min 46 W/m 9,7 km/h (2 Bft) 100,00 %
12.12.2021 13:00 7,6 C 7,2 C 6,1 C 100 % 1022,7 hPa 0,0 l/m 0 min 0 min 50 W/m 16,1 km/h (3 Bft) 100,00 %
12.12.2021 13:02 7,6 C 7,2 C 6,1 C 100 % 1022,7 hPa 0,0 l/m 0 min 0 min 51 W/m 16,1 km/h (3 Bft) 100,00 %
12.12.2021 13:04 7,6 C 7,2 C 6,1 C 100 % 1022,8 hPa 0,0 l/m 0 min 0 min 47 W/m 16,1 km/h (3 Bft) 100,00 %
12.12.2021 13:06 7,7 C 7,2 C 6,1 C 100 % 1022,8 hPa 0,0 l/m 0 min 0 min 45 W/m 12,9 km/h (3 Bft) 100,00 %
12.12.2021 13:08 7,7 C 7,2 C 6,1 C 100 % 1022,8 hPa 0,0 l/m 0 min 0 min 45 W/m 16,1 km/h (3 Bft) 100,00 %
12.12.2021 13:10 7,7 C 7,2 C 6,1 C 100 % 1022,7 hPa 0,0 l/m 0 min 0 min 42 W/m 16,1 km/h (3 Bft) 100,00 %
12.12.2021 13:12 7,7 C 7,2 C 6,1 C 100 % 1022,7 hPa 0,0 l/m 0 min 0 min 40 W/m 16,1 km/h (3 Bft) 93,62 %
12.12.2021 13:14 7,7 C 7,2 C 6,1 C 100 % 1022,7 hPa 0,0 l/m 0 min 0 min 39 W/m 16,1 km/h (3 Bft) 100,00 %
12.12.2021 13:16 7,7 C 7,2 C 6,1 C 100 % 1022,8 hPa 0,0 l/m 0 min 0 min 38 W/m 9,7 km/h (2 Bft) 97,87 %
12.12.2021 13:18 7,8 C 7,2 C 6,1 C 100 % 1022,7 hPa 0,0 l/m 0 min 0 min 39 W/m 16,1 km/h (3 Bft) 100,00 %
12.12.2021 13:20 7,8 C 7,2 C 6,1 C 100 % 1022,7 hPa 0,0 l/m 0 min 0 min 35 W/m 12,9 km/h (3 Bft) 100,00 %
12.12.2021 13:22 7,8 C 7,2 C 6,1 C 100 % 1022,8 hPa 0,0 l/m 0 min 0 min 34 W/m 9,7 km/h (2 Bft) 100,00 %
12.12.2021 13:24 7,8 C 7,2 C 6,1 C 100 % 1022,8 hPa 0,0 l/m 0 min 0 min 33 W/m 16,1 km/h (3 Bft) 100,00 %
12.12.2021 13:26 7,8 C 7,2 C 6,1 C 99 % 1022,8 hPa 0,0 l/m 0 min 0 min 33 W/m 19,3 km/h (3 Bft) 97,87 %
12.12.2021 13:28 7,8 C 7,2 C 6,1 C 99 % 1022,8 hPa 0,0 l/m 0 min 0 min 34 W/m 16,1 km/h (3 Bft) 97,87 %
12.12.2021 13:30 7,8 C 7,2 C 6,1 C 99 % 1022,8 hPa 0,0 l/m 0 min 0 min 33 W/m 12,9 km/h (3 Bft) 97,87 %
12.12.2021 13:32 7,8 C 7,2 C 6,1 C 99 % 1022,7 hPa 0,0 l/m 0 min 0 min 33 W/m 16,1 km/h (3 Bft) 97,83 %
12.12.2021 13:34 7,8 C 7,2 C 6,1 C 99 % 1022,8 hPa 0,0 l/m 0 min 0 min 33 W/m 16,1 km/h (3 Bft) 97,87 %
12.12.2021 13:36 7,8 C 7,2 C 6,1 C 99 % 1022,7 hPa 0,0 l/m 0 min 0 min 32 W/m 16,1 km/h (3 Bft) 95,74 %
12.12.2021 13:38 7,8 C 7,2 C 6,1 C 99 % 1022,7 hPa 0,0 l/m 0 min 0 min 31 W/m 19,3 km/h (3 Bft) 97,87 %
12.12.2021 13:40 7,8 C 7,2 C 6,1 C 99 % 1022,7 hPa 0,0 l/m 0 min 0 min 29 W/m 16,1 km/h (3 Bft) 97,87 %
12.12.2021 13:42 7,8 C 7,2 C 6,1 C 99 % 1022,6 hPa 0,0 l/m 0 min 0 min 29 W/m 16,1 km/h (3 Bft) 97,87 %
12.12.2021 13:44 7,8 C 7,2 C 6,1 C 99 % 1022,7 hPa 0,0 l/m 0 min 0 min 29 W/m 19,3 km/h (3 Bft) 95,65 %
12.12.2021 13:46 7,8 C 7,2 C 6,1 C 99 % 1022,7 hPa 0,0 l/m 0 min 0 min 33 W/m 19,3 km/h (3 Bft) 95,74 %
12.12.2021 13:48 7,8 C 7,2 C 6,1 C 99 % 1022,7 hPa 0,0 l/m 0 min 0 min 35 W/m 16,1 km/h (3 Bft) 100,00 %
12.12.2021 13:50 7,8 C 7,2 C 6,1 C 99 % 1022,8 hPa 0,0 l/m 0 min 0 min 32 W/m 16,1 km/h (3 Bft) 93,62 %
12.12.2021 13:52 7,9 C 7,2 C 6,1 C 99 % 1022,8 hPa 0,0 l/m 0 min 0 min 29 W/m 19,3 km/h (3 Bft) 93,62 %
12.12.2021 13:54 7,9 C 7,2 C 6,7 C 99 % 1022,8 hPa 0,0 l/m 0 min 0 min 26 W/m 12,9 km/h (3 Bft) 93,62 %
12.12.2021 13:56 7,9 C 7,2 C 6,1 C 99 % 1022,8 hPa 0,0 l/m 0 min 0 min 26 W/m 16,1 km/h (3 Bft) 93,48 %
12.12.2021 13:58 7,9 C 7,2 C 6,1 C 99 % 1022,8 hPa 0,0 l/m 0 min 0 min 25 W/m 16,1 km/h (3 Bft) 95,74 %
12.12.2021 14:00 7,9 C 7,2 C 6,1 C 99 % 1022,8 hPa 0,0 l/m 0 min 0 min 24 W/m 16,1 km/h (3 Bft) 95,74 %
12.12.2021 14:02 7,9 C 7,2 C 6,1 C 99 % 1022,8 hPa 0,0 l/m 0 min 0 min 26 W/m 22,5 km/h (4 Bft) 95,83 %
12.12.2021 14:04 7,9 C 7,2 C 6,1 C 99 % 1022,7 hPa 0,0 l/m 0 min 0 min 26 W/m 12,9 km/h (3 Bft) 95,74 %
12.12.2021 14:06 7,9 C 7,2 C 6,7 C 99 % 1022,8 hPa 0,0 l/m 0 min 0 min 27 W/m 12,9 km/h (3 Bft) 93,48 %
12.12.2021 14:08 7,9 C 7,2 C 6,1 C 99 % 1022,7 hPa 0,0 l/m 0 min 0 min 27 W/m 12,9 km/h (3 Bft) 95,74 %
12.12.2021 14:10 7,9 C 7,2 C 6,1 C 99 % 1022,8 hPa 0,0 l/m 0 min 0 min 32 W/m 19,3 km/h (3 Bft) 94,00 %
12.12.2021 14:12 7,9 C 7,2 C 6,7 C 99 % 1022,7 hPa 0,0 l/m 0 min 0 min 35 W/m 16,1 km/h (3 Bft) 95,74 %
12.12.2021 14:14 7,9 C 7,2 C 6,7 C 100 % 1022,7 hPa 0,0 l/m 0 min 2 min 34 W/m 12,9 km/h (3 Bft) 97,87 %
12.12.2021 14:16 7,9 C 7,2 C 6,7 C 100 % 1022,7 hPa 0,0 l/m 0 min 2 min 34 W/m 19,3 km/h (3 Bft) 95,74 %
12.12.2021 14:18 7,9 C 7,2 C 6,7 C 100 % 1022,7 hPa 0,0 l/m 0 min 2 min 32 W/m 22,5 km/h (4 Bft) 95,83 %
12.12.2021 14:20 7,9 C 7,2 C 6,7 C 100 % 1022,7 hPa 0,2 l/m 0 min 2 min 29 W/m 16,1 km/h (3 Bft) 95,74 %
12.12.2021 14:22 7,9 C 7,2 C 6,7 C 100 % 1022,7 hPa 0,0 l/m 0 min 2 min 27 W/m 19,3 km/h (3 Bft) 93,62 %
12.12.2021 14:24 8,0 C 7,2 C 6,7 C 100 % 1022,8 hPa 0,0 l/m 0 min 0 min 26 W/m 22,5 km/h (4 Bft) 95,74 %
12.12.2021 14:26 7,9 C 7,2 C 6,7 C 100 % 1022,8 hPa 0,0 l/m 0 min 0 min 26 W/m 22,5 km/h (4 Bft) 95,74 %
12.12.2021 14:28 7,9 C 7,2 C 6,7 C 100 % 1022,7 hPa 0,0 l/m 0 min 0 min 25 W/m 16,1 km/h (3 Bft) 95,74 %
12.12.2021 14:30 7,9 C 7,2 C 6,7 C 100 % 1022,7 hPa 0,0 l/m 0 min 0 min 23 W/m 12,9 km/h (3 Bft) 95,65 %
12.12.2021 14:32 7,9 C 7,2 C 6,7 C 100 % 1022,8 hPa 0,0 l/m 0 min 0 min 21 W/m 19,3 km/h (3 Bft) 95,74 %
12.12.2021 14:34 8,0 C 7,2 C 6,7 C 100 % 1022,7 hPa 0,0 l/m 0 min 0 min 22 W/m 19,3 km/h (3 Bft) 93,62 %
12.12.2021 14:36 8,0 C 7,2 C 6,7 C 100 % 1022,8 hPa 0,0 l/m 0 min 0 min 20 W/m 22,5 km/h (4 Bft) 97,87 %
12.12.2021 14:38 8,0 C 7,2 C 6,7 C 100 % 1022,8 hPa 0,0 l/m 0 min 2 min 19 W/m 22,5 km/h (4 Bft) 97,14 %
12.12.2021 14:40 8,0 C 7,2 C 6,7 C 100 % 1022,8 hPa 0,0 l/m 0 min 0 min 19 W/m 22,5 km/h (4 Bft) 97,87 %
12.12.2021 14:42 7,9 C 7,2 C 6,7 C 100 % 1022,9 hPa 0,0 l/m 0 min 0 min 19 W/m 22,5 km/h (4 Bft) 97,87 %
12.12.2021 14:44 7,9 C 7,2 C 6,7 C 100 % 1022,9 hPa 0,0 l/m 0 min 0 min 20 W/m 16,1 km/h (3 Bft) 100,00 %
12.12.2021 14:46 7,9 C 7,2 C 6,7 C 100 % 1022,9 hPa 0,0 l/m 0 min 0 min 18 W/m 16,1 km/h (3 Bft) 100,00 %
12.12.2021 14:48 7,9 C 7,2 C 6,7 C 100 % 1022,8 hPa 0,0 l/m 0 min 2 min 19 W/m 16,1 km/h (3 Bft) 100,00 %
12.12.2021 14:50 7,9 C 7,2 C 6,7 C 100 % 1022,8 hPa 0,0 l/m 0 min 2 min 18 W/m 22,5 km/h (4 Bft) 100,00 %
12.12.2021 14:52 7,9 C 7,2 C 6,7 C 100 % 1022,9 hPa 0,0 l/m 0 min 2 min 18 W/m 19,3 km/h (3 Bft) 100,00 %
12.12.2021 14:54 7,9 C 7,2 C 6,7 C 100 % 1022,8 hPa 0,0 l/m 0 min 0 min 17 W/m 16,1 km/h (3 Bft) 100,00 %
12.12.2021 14:56 7,9 C 7,2 C 6,7 C 100 % 1022,8 hPa 0,0 l/m 0 min 0 min 14 W/m 25,7 km/h (4 Bft) 100,00 %
12.12.2021 14:58 8,0 C 7,2 C 6,7 C 100 % 1022,9 hPa 0,0 l/m 0 min 0 min 15 W/m 12,9 km/h (3 Bft) 100,00 %
12.12.2021 15:00 8,0 C 7,2 C 6,7 C 100 % 1022,8 hPa 0,0 l/m 0 min 0 min 16 W/m 16,1 km/h (3 Bft) 100,00 %
12.12.2021 15:02 8,0 C 7,2 C 6,7 C 100 % 1022,8 hPa 0,0 l/m 0 min 0 min 18 W/m 19,3 km/h (3 Bft) 100,00 %
12.12.2021 15:04 8,0 C 7,2 C 6,7 C 100 % 1022,9 hPa 0,0 l/m 0 min 2 min 18 W/m 12,9 km/h (3 Bft) 100,00 %
12.12.2021 15:06 8,0 C 7,2 C 6,7 C 100 % 1022,9 hPa 0,0 l/m 0 min 2 min 17 W/m 9,7 km/h (2 Bft) 100,00 %
12.12.2021 15:08 8,0 C 7,2 C 6,7 C 100 % 1022,9 hPa 0,0 l/m 0 min 0 min 18 W/m 16,1 km/h (3 Bft) 100,00 %
12.12.2021 15:10 8,0 C 7,2 C 6,7 C 100 % 1022,9 hPa 0,2 l/m 0 min 0 min 16 W/m 16,1 km/h (3 Bft) 100,00 %
12.12.2021 15:12 8,0 C 7,2 C 6,7 C 100 % 1022,9 hPa 0,0 l/m 0 min 0 min 17 W/m 16,1 km/h (3 Bft) 100,00 %
12.12.2021 15:14 8,0 C 7,2 C 6,7 C 100 % 1023,0 hPa 0,0 l/m 0 min 0 min 15 W/m 22,5 km/h (4 Bft) 100,00 %
12.12.2021 15:16 8,0 C 7,2 C 6,7 C 100 % 1023,0 hPa 0,0 l/m 0 min 0 min 13 W/m 16,1 km/h (3 Bft) 97,87 %
12.12.2021 15:18 8,0 C 7,2 C 6,7 C 100 % 1023,0 hPa 0,0 l/m 0 min 0 min 12 W/m 16,1 km/h (3 Bft) 97,87 %
12.12.2021 15:20 8,0 C 7,2 C 6,7 C 100 % 1023,0 hPa 0,0 l/m 0 min 0 min 12 W/m 16,1 km/h (3 Bft) 100,00 %
12.12.2021 15:22 8,0 C 7,2 C 6,7 C 100 % 1023,0 hPa 0,0 l/m 0 min 0 min 11 W/m 16,1 km/h (3 Bft) 55,32 %
12.12.2021 15:24 8,0 C 7,2 C 6,7 C 100 % 1023,1 hPa 0,0 l/m 0 min 0 min 10 W/m 6,4 km/h (2 Bft) 97,78 %
12.12.2021 15:26 8,0 C 7,2 C 6,7 C 100 % 1023,0 hPa 0,0 l/m 0 min 0 min 8 W/m 12,9 km/h (3 Bft) 97,87 %
12.12.2021 15:28 8,0 C 7,2 C 6,7 C 100 % 1023,1 hPa 0,0 l/m 0 min 0 min 7 W/m 12,9 km/h (3 Bft) 97,87 %
12.12.2021 15:30 8,0 C 7,2 C 6,7 C 100 % 1023,0 hPa 0,0 l/m 0 min 0 min 5 W/m 16,1 km/h (3 Bft) 97,87 %
12.12.2021 15:32 8,0 C 7,2 C 6,7 C 100 % 1023,0 hPa 0,0 l/m 0 min 0 min 5 W/m 19,3 km/h (3 Bft) 97,83 %
12.12.2021 15:34 8,0 C 7,2 C 6,7 C 100 % 1023,0 hPa 0,0 l/m 0 min 0 min 5 W/m 12,9 km/h (3 Bft) 97,87 %
12.12.2021 15:36 8,0 C 7,2 C 6,7 C 100 % 1023,0 hPa 0,0 l/m 0 min 0 min 5 W/m 16,1 km/h (3 Bft) 95,74 %
12.12.2021 15:38 8,0 C 7,2 C 6,7 C 100 % 1023,1 hPa 0,0 l/m 0 min 0 min 5 W/m 16,1 km/h (3 Bft) 98,11 %
12.12.2021 15:40 8,0 C 7,2 C 6,7 C 100 % 1023,1 hPa 0,0 l/m 0 min 0 min 5 W/m 12,9 km/h (3 Bft) 96,00 %
12.12.2021 15:42 8,0 C 7,2 C 6,7 C 100 % 1023,1 hPa 0,0 l/m 0 min 0 min 5 W/m 16,1 km/h (3 Bft) 95,74 %
12.12.2021 15:44 8,0 C 7,2 C 6,7 C 100 % 1023,1 hPa 0,0 l/m 0 min 0 min 3 W/m 9,7 km/h (2 Bft) 95,74 %
12.12.2021 15:46 8,0 C 7,2 C 6,7 C 100 % 1023,2 hPa 0,0 l/m 0 min 0 min 2 W/m 12,9 km/h (3 Bft) 97,87 %
12.12.2021 15:48 7,9 C 7,2 C 6,7 C 100 % 1023,2 hPa 0,0 l/m 0 min 0 min 5 W/m 6,4 km/h (2 Bft) 97,87 %
12.12.2021 15:50 7,9 C 7,2 C 6,7 C 100 % 1023,2 hPa 0,0 l/m 0 min 0 min 5 W/m 6,4 km/h (2 Bft) 97,83 %
12.12.2021 15:52 8,0 C 7,2 C 6,7 C 100 % 1023,2 hPa 0,0 l/m 0 min 0 min 5 W/m 9,7 km/h (2 Bft) 95,74 %
12.12.2021 15:54 8,0 C 7,2 C 6,7 C 100 % 1023,2 hPa 0,0 l/m 0 min 0 min 5 W/m 16,1 km/h (3 Bft) 97,87 %
12.12.2021 15:56 8,0 C 7,2 C 6,7 C 100 % 1023,2 hPa 0,0 l/m 0 min 0 min 5 W/m 6,4 km/h (2 Bft) 97,87 %
12.12.2021 15:58 8,0 C 7,2 C 6,7 C 100 % 1023,2 hPa 0,0 l/m 0 min 0 min 5 W/m 9,7 km/h (2 Bft) 100,00 %
12.12.2021 16:00 8,0 C 7,2 C 6,7 C 100 % 1023,2 hPa 0,0 l/m 0 min 0 min 5 W/m 6,4 km/h (2 Bft) 100,00 %
12.12.2021 16:02 8,0 C 7,2 C 6,7 C 100 % 1023,3 hPa 0,0 l/m 0 min 0 min 1 W/m 6,4 km/h (2 Bft) 100,00 %
12.12.2021 16:04 7,9 C 7,2 C 6,7 C 100 % 1023,3 hPa 0,0 l/m 0 min 0 min 0 W/m 6,4 km/h (2 Bft) 100,00 %
12.12.2021 16:06 8,0 C 7,2 C 6,7 C 100 % 1023,3 hPa 0,0 l/m 0 min 0 min 2 W/m 19,3 km/h (3 Bft) 100,00 %
12.12.2021 16:08 8,0 C 7,2 C 6,7 C 100 % 1023,3 hPa 0,0 l/m 0 min 0 min 0 W/m 3,2 km/h (1 Bft) 100,00 %
12.12.2021 16:10 8,0 C 7,2 C 6,7 C 100 % 1023,3 hPa 0,0 l/m 0 min 0 min 0 W/m 12,9 km/h (3 Bft) 100,00 %
12.12.2021 16:12 8,0 C 7,2 C 6,7 C 100 % 1023,3 hPa 0,0 l/m 0 min 0 min 0 W/m 12,9 km/h (3 Bft) 100,00 %
12.12.2021 16:14 8,0 C 7,2 C 6,7 C 100 % 1023,3 hPa 0,0 l/m 0 min 0 min 0 W/m 6,4 km/h (2 Bft) 100,00 %
12.12.2021 16:16 8,0 C 7,2 C 6,7 C 100 % 1023,3 hPa 0,0 l/m 0 min 2 min 0 W/m 9,7 km/h (2 Bft) 100,00 %
12.12.2021 16:18 8,0 C 7,2 C 6,7 C 100 % 1023,4 hPa 0,0 l/m 0 min 2 min 0 W/m 9,7 km/h (2 Bft) 100,00 %
12.12.2021 16:20 8,0 C 7,2 C 6,7 C 100 % 1023,4 hPa 0,0 l/m 0 min 0 min 0 W/m 16,1 km/h (3 Bft) 100,00 %
12.12.2021 16:22 8,0 C 7,2 C 6,7 C 100 % 1023,4 hPa 0,0 l/m 0 min 0 min 0 W/m 6,4 km/h (2 Bft) 97,87 %
12.12.2021 16:24 8,0 C 7,2 C 6,7 C 100 % 1023,4 hPa 0,0 l/m 0 min 0 min 0 W/m 16,1 km/h (3 Bft) 97,87 %
12.12.2021 16:26 8,0 C 7,2 C 6,7 C 100 % 1023,4 hPa 0,0 l/m 0 min 0 min 0 W/m 9,7 km/h (2 Bft) 100,00 %
12.12.2021 16:28 8,0 C 7,2 C 6,7 C 100 % 1023,4 hPa 0,0 l/m 0 min 0 min 0 W/m 12,9 km/h (3 Bft) 100,00 %
12.12.2021 16:30 8,0 C 7,2 C 6,7 C 100 % 1023,5 hPa 0,0 l/m 0 min 0 min 0 W/m 9,7 km/h (2 Bft) 95,74 %
12.12.2021 16:32 8,1 C 7,2 C 6,7 C 100 % 1023,5 hPa 0,0 l/m 0 min 0 min 0 W/m 12,9 km/h (3 Bft) 95,65 %
12.12.2021 16:34 8,1 C 7,2 C 6,7 C 100 % 1023,5 hPa 0,0 l/m 0 min 0 min 0 W/m 6,4 km/h (2 Bft) 97,87 %
12.12.2021 16:36 8,1 C 7,2 C 6,7 C 100 % 1023,6 hPa 0,0 l/m 0 min 0 min 0 W/m 6,4 km/h (2 Bft) 95,74 %
12.12.2021 16:38 8,1 C 7,2 C 6,7 C 100 % 1023,5 hPa 0,0 l/m 0 min 0 min 0 W/m 12,9 km/h (3 Bft) 95,74 %
12.12.2021 16:40 8,1 C 7,2 C 6,7 C 100 % 1023,5 hPa 0,0 l/m 0 min 2 min 0 W/m 3,2 km/h (1 Bft) 97,87 %
12.12.2021 16:42 8,1 C 7,2 C 6,7 C 100 % 1023,6 hPa 0,0 l/m 0 min 0 min 0 W/m 6,4 km/h (2 Bft) 97,83 %
12.12.2021 16:44 8,1 C 7,2 C 6,7 C 100 % 1023,5 hPa 0,0 l/m 0 min 2 min 0 W/m 6,4 km/h (2 Bft) 93,62 %
12.12.2021 16:46 8,1 C 7,2 C 6,7 C 100 % 1023,5 hPa 0,0 l/m 0 min 0 min 0 W/m 6,4 km/h (2 Bft) 95,74 %
12.12.2021 16:48 8,1 C 7,2 C 6,7 C 100 % 1023,5 hPa 0,0 l/m 0 min 0 min 0 W/m 6,4 km/h (2 Bft) 95,74 %
12.12.2021 16:50 8,1 C 7,2 C 6,7 C 100 % 1023,6 hPa 0,0 l/m 0 min 0 min 0 W/m 12,9 km/h (3 Bft) 95,74 %
12.12.2021 16:52 8,1 C 7,2 C 6,7 C 100 % 1023,6 hPa 0,0 l/m 0 min 0 min 0 W/m 9,7 km/h (2 Bft) 95,74 %
12.12.2021 16:54 8,1 C 7,2 C 6,7 C 100 % 1023,6 hPa 0,0 l/m 0 min 0 min 0 W/m 6,4 km/h (2 Bft) 95,65 %
12.12.2021 16:56 8,1 C 7,2 C 6,7 C 100 % 1023,6 hPa 0,0 l/m 0 min 0 min 0 W/m 3,2 km/h (1 Bft) 93,62 %
12.12.2021 16:58 8,1 C 7,2 C 6,7 C 100 % 1023,7 hPa 0,0 l/m 0 min 0 min 0 W/m 6,4 km/h (2 Bft) 95,74 %
12.12.2021 17:00 8,1 C 7,2 C 6,7 C 100 % 1023,7 hPa 0,0 l/m 0 min 0 min 0 W/m 6,4 km/h (2 Bft) 93,62 %
12.12.2021 17:02 8,1 C 7,2 C 6,7 C 100 % 1023,7 hPa 0,0 l/m 0 min 0 min 0 W/m 9,7 km/h (2 Bft) 93,62 %
12.12.2021 17:04 8,1 C 7,2 C 6,7 C 100 % 1023,8 hPa 0,0 l/m 0 min 0 min 0 W/m 6,4 km/h (2 Bft) 95,74 %
12.12.2021 17:06 8,1 C 7,2 C 6,7 C 100 % 1023,8 hPa 0,0 l/m 0 min 0 min 0 W/m 6,4 km/h (2 Bft) 95,65 %
12.12.2021 17:08 8,1 C 7,2 C 6,7 C 100 % 1023,8 hPa 0,0 l/m 0 min 0 min 0 W/m 3,2 km/h (1 Bft) 97,87 %
12.12.2021 17:10 8,1 C 7,2 C 6,7 C 100 % 1023,8 hPa 0,0 l/m 0 min 0 min 0 W/m 6,4 km/h (2 Bft) 95,74 %
12.12.2021 17:12 8,1 C 7,2 C 6,7 C 100 % 1023,8 hPa 0,0 l/m 0 min 0 min 0 W/m 6,4 km/h (2 Bft) 95,74 %
12.12.2021 17:14 8,1 C 7,2 C 6,7 C 100 % 1023,7 hPa 0,0 l/m 0 min 0 min 0 W/m 9,7 km/h (2 Bft) 95,74 %
12.12.2021 17:16 8,1 C 7,2 C 6,7 C 100 % 1023,8 hPa 0,0 l/m 0 min 0 min 0 W/m 9,7 km/h (2 Bft) 95,74 %
12.12.2021 17:18 8,1 C 7,2 C 6,7 C 100 % 1023,8 hPa 0,0 l/m 0 min 0 min 0 W/m 12,9 km/h (3 Bft) 91,30 %
12.12.2021 17:20 8,1 C 7,2 C 6,7 C 100 % 1023,8 hPa 0,0 l/m 0 min 0 min 0 W/m 9,7 km/h (2 Bft) 97,87 %
12.12.2021 17:22 8,1 C 7,2 C 6,7 C 100 % 1023,8 hPa 0,0 l/m 0 min 0 min 0 W/m 9,7 km/h (2 Bft) 95,74 %
12.12.2021 17:24 8,1 C 7,2 C 6,7 C 100 % 1023,8 hPa 0,0 l/m 0 min 0 min 0 W/m 6,4 km/h (2 Bft) 100,00 %
12.12.2021 17:26 8,1 C 7,2 C 6,7 C 100 % 1023,8 hPa 0,0 l/m 0 min 0 min 0 W/m 6,4 km/h (2 Bft) 97,87 %
12.12.2021 17:28 8,1 C 7,2 C 6,7 C 100 % 1023,9 hPa 0,0 l/m 0 min 0 min 0 W/m 9,7 km/h (2 Bft) 100,00 %
12.12.2021 17:30 8,1 C 7,2 C 6,7 C 100 % 1023,8 hPa 0,0 l/m 0 min 0 min 0 W/m 6,4 km/h (2 Bft) 97,83 %
12.12.2021 17:32 8,2 C 7,2 C 6,7 C 100 % 1023,9 hPa 0,0 l/m 0 min 0 min 0 W/m 6,4 km/h (2 Bft) 97,87 %
12.12.2021 17:34 8,2 C 7,2 C 6,7 C 100 % 1023,9 hPa 0,0 l/m 0 min 0 min 0 W/m 6,4 km/h (2 Bft) 97,87 %
12.12.2021 17:36 8,2 C 7,2 C 6,7 C 100 % 1023,9 hPa 0,0 l/m 0 min 0 min 0 W/m 6,4 km/h (2 Bft) 95,74 %
12.12.2021 17:38 8,2 C 7,2 C 6,7 C 100 % 1023,9 hPa 0,0 l/m 0 min 0 min 0 W/m 9,7 km/h (2 Bft) 97,87 %
12.12.2021 17:40 8,2 C 7,2 C 6,7 C 100 % 1023,9 hPa 0,0 l/m 0 min 0 min 0 W/m 9,7 km/h (2 Bft) 97,83 %
12.12.2021 17:42 8,2 C 7,2 C 6,7 C 100 % 1023,9 hPa 0,0 l/m 0 min 0 min 0 W/m 3,2 km/h (1 Bft) 97,87 %
12.12.2021 17:44 8,2 C 7,8 C 7,2 C 100 % 1023,9 hPa 0,0 l/m 0 min 0 min 0 W/m 9,7 km/h (2 Bft) 95,74 %
12.12.2021 17:46 8,2 C 7,2 C 6,7 C 100 % 1023,9 hPa 0,0 l/m 0 min 0 min 0 W/m 6,4 km/h (2 Bft) 97,87 %
12.12.2021 17:48 8,3 C 7,8 C 6,7 C 100 % 1023,9 hPa 0,0 l/m 0 min 0 min 0 W/m 12,9 km/h (3 Bft) 97,87 %
12.12.2021 17:50 8,3 C 7,8 C 7,2 C 100 % 1023,9 hPa 0,0 l/m 0 min 0 min 0 W/m 12,9 km/h (3 Bft) 97,87 %
12.12.2021 17:52 8,3 C 7,8 C 7,2 C 100 % 1024,0 hPa 0,0 l/m 0 min 0 min 0 W/m 16,1 km/h (3 Bft) 97,83 %
12.12.2021 17:54 8,3 C 7,8 C 7,2 C 100 % 1024,0 hPa 0,0 l/m 0 min 0 min 0 W/m 9,7 km/h (2 Bft) 97,87 %
12.12.2021 17:56 8,4 C 7,8 C 7,2 C 100 % 1024,0 hPa 0,0 l/m 0 min 0 min 0 W/m 12,9 km/h (3 Bft) 97,87 %
12.12.2021 17:58 8,4 C 7,8 C 7,2 C 100 % 1024,0 hPa 0,0 l/m 0 min 0 min 0 W/m 6,4 km/h (2 Bft) 100,00 %
12.12.2021 18:00 8,4 C 7,8 C 7,2 C 100 % 1024,0 hPa 0,0 l/m 0 min 0 min 0 W/m 12,9 km/h (3 Bft) 100,00 %
12.12.2021 18:02 8,4 C 7,8 C 7,2 C 100 % 1024,0 hPa 0,0 l/m 0 min 0 min 0 W/m 6,4 km/h (2 Bft) 100,00 %
12.12.2021 18:04 8,4 C 7,8 C 7,2 C 100 % 1024,0 hPa 0,0 l/m 0 min 0 min 0 W/m 3,2 km/h (1 Bft) 100,00 %
12.12.2021 18:08 8,4 C 7,8 C 7,2 C 100 % 1024,1 hPa 0,0 l/m 0 min 0 min 0 W/m 6,4 km/h (2 Bft) 100,00 %
12.12.2021 18:10 8,4 C 7,8 C 7,2 C 100 % 1024,1 hPa 0,0 l/m 0 min 0 min 0 W/m 6,4 km/h (2 Bft) 100,00 %
12.12.2021 18:12 8,4 C 7,8 C 7,2 C 100 % 1024,1 hPa 0,0 l/m 0 min 0 min 0 W/m 6,4 km/h (2 Bft) 97,87 %
12.12.2021 18:14 8,4 C 7,8 C 7,2 C 100 % 1024,2 hPa 0,0 l/m 0 min 0 min 0 W/m 6,4 km/h (2 Bft) 100,00 %
12.12.2021 18:16 8,4 C 7,8 C 7,2 C 100 % 1024,1 hPa 0,0 l/m 0 min 0 min 0 W/m 9,7 km/h (2 Bft) 100,00 %
12.12.2021 18:18 8,4 C 7,8 C 7,2 C 100 % 1024,2 hPa 0,0 l/m 0 min 0 min 0 W/m 6,4 km/h (2 Bft) 100,00 %
12.12.2021 18:20 8,4 C 7,8 C 7,2 C 100 % 1024,2 hPa 0,0 l/m 0 min 0 min 0 W/m 6,4 km/h (2 Bft) 100,00 %
12.12.2021 18:22 8,4 C 7,8 C 7,2 C 100 % 1024,2 hPa 0,0 l/m 0 min 0 min 0 W/m 6,4 km/h (2 Bft) 97,87 %
12.12.2021 18:24 8,4 C 7,8 C 7,2 C 100 % 1024,2 hPa 0,0 l/m 0 min 0 min 0 W/m 6,4 km/h (2 Bft) 100,00 %
12.12.2021 18:26 8,4 C 7,8 C 7,2 C 100 % 1024,2 hPa 0,0 l/m 0 min 0 min 0 W/m 9,7 km/h (2 Bft) 100,00 %
12.12.2021 18:28 8,5 C 7,8 C 7,2 C 100 % 1024,2 hPa 0,0 l/m 0 min 0 min 0 W/m 9,7 km/h (2 Bft) 100,00 %
12.12.2021 18:30 8,5 C 7,8 C 7,2 C 100 % 1024,2 hPa 0,0 l/m 0 min 0 min 0 W/m 16,1 km/h (3 Bft) 100,00 %
12.12.2021 18:32 8,5 C 7,8 C 7,2 C 100 % 1024,2 hPa 0,0 l/m 0 min 0 min 0 W/m 6,4 km/h (2 Bft) 100,00 %
12.12.2021 18:34 8,6 C 7,8 C 7,2 C 100 % 1024,2 hPa 0,0 l/m 0 min 0 min 0 W/m 6,4 km/h (2 Bft) 100,00 %
12.12.2021 18:36 8,6 C 7,8 C 7,2 C 100 % 1024,2 hPa 0,0 l/m 0 min 0 min 0 W/m 6,4 km/h (2 Bft) 100,00 %
12.12.2021 18:38 8,6 C 7,8 C 7,2 C 100 % 1024,2 hPa 0,0 l/m 0 min 0 min 0 W/m 6,4 km/h (2 Bft) 100,00 %
12.12.2021 18:40 8,6 C 7,8 C 7,2 C 100 % 1024,3 hPa 0,0 l/m 0 min 0 min 0 W/m 12,9 km/h (3 Bft) 100,00 %
12.12.2021 18:42 8,6 C 7,8 C 7,2 C 100 % 1024,2 hPa 0,0 l/m 0 min 0 min 0 W/m 12,9 km/h (3 Bft) 100,00 %
12.12.2021 18:44 8,6 C 7,8 C 7,2 C 100 % 1024,2 hPa 0,0 l/m 0 min 0 min 0 W/m 9,7 km/h (2 Bft) 97,83 %
12.12.2021 18:46 8,6 C 7,8 C 7,2 C 100 % 1024,2 hPa 0,0 l/m 0 min 0 min 0 W/m 9,7 km/h (2 Bft) 100,00 %
12.12.2021 18:48 8,6 C 7,8 C 7,2 C 100 % 1024,2 hPa 0,0 l/m 0 min 0 min 0 W/m 16,1 km/h (3 Bft) 100,00 %
12.12.2021 18:50 8,6 C 7,8 C 7,2 C 100 % 1024,2 hPa 0,0 l/m 0 min 0 min 0 W/m 12,9 km/h (3 Bft) 100,00 %
12.12.2021 18:52 8,6 C 7,8 C 7,2 C 100 % 1024,2 hPa 0,0 l/m 0 min 0 min 0 W/m 6,4 km/h (2 Bft) 97,87 %
12.12.2021 18:54 8,6 C 7,8 C 7,2 C 100 % 1024,2 hPa 0,0 l/m 0 min 0 min 0 W/m 6,4 km/h (2 Bft) 100,00 %
12.12.2021 18:56 8,6 C 7,8 C 7,2 C 100 % 1024,2 hPa 0,0 l/m 0 min 0 min 0 W/m 12,9 km/h (3 Bft) 97,83 %
12.12.2021 18:58 8,6 C 7,8 C 7,2 C 100 % 1024,2 hPa 0,0 l/m 0 min 0 min 0 W/m 3,2 km/h (1 Bft) 95,74 %
12.12.2021 19:00 8,6 C 7,8 C 7,2 C 100 % 1024,2 hPa 0,0 l/m 0 min 0 min 0 W/m 6,4 km/h (2 Bft) 100,00 %
12.12.2021 19:02 8,7 C 7,8 C 7,2 C 100 % 1024,3 hPa 0,0 l/m 0 min 0 min 0 W/m 6,4 km/h (2 Bft) 97,67 %
12.12.2021 19:04 8,7 C 7,8 C 7,2 C 100 % 1024,3 hPa 0,0 l/m 0 min 0 min 0 W/m 6,4 km/h (2 Bft) 100,00 %
12.12.2021 19:06 8,7 C 7,8 C 7,2 C 100 % 1024,3 hPa 0,0 l/m 0 min 0 min 0 W/m 3,2 km/h (1 Bft) 97,87 %
12.12.2021 19:08 8,7 C 7,8 C 7,2 C 100 % 1024,3 hPa 0,0 l/m 0 min 0 min 0 W/m 6,4 km/h (2 Bft) 100,00 %
12.12.2021 19:10 8,7 C 7,8 C 7,2 C 100 % 1024,3 hPa 0,0 l/m 0 min 0 min 0 W/m 9,7 km/h (2 Bft) 100,00 %
12.12.2021 19:12 8,7 C 7,8 C 7,2 C 100 % 1024,3 hPa 0,0 l/m 0 min 0 min 0 W/m 6,4 km/h (2 Bft) 100,00 %
12.12.2021 19:14 8,7 C 7,8 C 7,2 C 100 % 1024,3 hPa 0,0 l/m 0 min 0 min 0 W/m 6,4 km/h (2 Bft) 97,87 %
12.12.2021 19:16 8,7 C 7,8 C 7,2 C 100 % 1024,3 hPa 0,0 l/m 0 min 0 min 0 W/m 6,4 km/h (2 Bft) 97,87 %
12.12.2021 19:18 8,7 C 8,3 C 7,2 C 100 % 1024,4 hPa 0,0 l/m 0 min 0 min 0 W/m 12,9 km/h (3 Bft) 95,74 %
12.12.2021 19:20 8,8 C 8,3 C 7,2 C 100 % 1024,4 hPa 0,0 l/m 0 min 0 min 0 W/m 6,4 km/h (2 Bft) 97,87 %
12.12.2021 19:22 8,8 C 8,3 C 7,2 C 100 % 1024,4 hPa 0,0 l/m 0 min 0 min 0 W/m 6,4 km/h (2 Bft) 97,87 %
12.12.2021 19:24 8,8 C 8,3 C 7,2 C 100 % 1024,4 hPa 0,0 l/m 0 min 0 min 0 W/m 3,2 km/h (1 Bft) 97,83 %
12.12.2021 19:26 8,8 C 7,8 C 7,2 C 100 % 1024,4 hPa 0,0 l/m 0 min 0 min 0 W/m 3,2 km/h (1 Bft) 95,74 %
12.12.2021 19:28 8,8 C 8,3 C 7,2 C 100 % 1024,4 hPa 0,0 l/m 0 min 0 min 0 W/m 6,4 km/h (2 Bft) 95,74 %
12.12.2021 19:30 8,8 C 8,3 C 7,8 C 100 % 1024,4 hPa 0,0 l/m 0 min 0 min 0 W/m 9,7 km/h (2 Bft) 95,74 %
12.12.2021 19:32 8,8 C 8,3 C 7,8 C 100 % 1024,4 hPa 0,0 l/m 0 min 0 min 0 W/m 9,7 km/h (2 Bft) 97,87 %
12.12.2021 19:34 8,8 C 8,3 C 7,8 C 100 % 1024,5 hPa 0,0 l/m 0 min 0 min 0 W/m 9,7 km/h (2 Bft) 91,49 %
12.12.2021 19:36 8,8 C 8,3 C 7,8 C 100 % 1024,5 hPa 0,0 l/m 0 min 0 min 0 W/m 12,9 km/h (3 Bft) 93,48 %
12.12.2021 19:38 8,9 C 8,3 C 7,8 C 100 % 1024,5 hPa 0,0 l/m 0 min 0 min 0 W/m 9,7 km/h (2 Bft) 91,49 %
12.12.2021 19:40 8,9 C 8,3 C 7,8 C 100 % 1024,5 hPa 0,0 l/m 0 min 0 min 0 W/m 6,4 km/h (2 Bft) 91,49 %
12.12.2021 19:42 8,9 C 8,3 C 7,8 C 100 % 1024,5 hPa 0,0 l/m 0 min 0 min 0 W/m 12,9 km/h (3 Bft) 93,62 %
12.12.2021 19:44 8,9 C 8,3 C 7,8 C 100 % 1024,5 hPa 0,0 l/m 0 min 0 min 0 W/m 6,4 km/h (2 Bft) 93,62 %
12.12.2021 19:46 8,9 C 8,3 C 7,8 C 100 % 1024,6 hPa 0,0 l/m 0 min 0 min 0 W/m 6,4 km/h (2 Bft) 91,49 %
12.12.2021 19:48 8,9 C 8,3 C 7,8 C 100 % 1024,6 hPa 0,0 l/m 0 min 0 min 0 W/m 6,4 km/h (2 Bft) 93,48 %
12.12.2021 19:50 8,9 C 8,3 C 7,8 C 100 % 1024,6 hPa 0,0 l/m 0 min 0 min 0 W/m 3,2 km/h (1 Bft) 93,62 %
12.12.2021 19:52 9,0 C 8,3 C 7,8 C 100 % 1024,6 hPa 0,0 l/m 0 min 0 min 0 W/m 6,4 km/h (2 Bft) 91,49 %
12.12.2021 19:54 9,0 C 8,3 C 7,8 C 100 % 1024,6 hPa 0,0 l/m 0 min 0 min 0 W/m 12,9 km/h (3 Bft) 93,62 %
12.12.2021 19:56 9,0 C 8,3 C 7,8 C 100 % 1024,6 hPa 0,0 l/m 0 min 0 min 0 W/m 9,7 km/h (2 Bft) 95,74 %
12.12.2021 19:58 9,0 C 8,3 C 7,8 C 100 % 1024,7 hPa 0,0 l/m 0 min 0 min 0 W/m 6,4 km/h (2 Bft) 95,74 %
12.12.2021 20:00 9,1 C 8,3 C 7,8 C 100 % 1024,7 hPa 0,0 l/m 0 min 0 min 0 W/m 9,7 km/h (2 Bft) 97,87 %
12.12.2021 20:02 9,1 C 8,3 C 7,8 C 100 % 1024,7 hPa 0,0 l/m 0 min 0 min 0 W/m 16,1 km/h (3 Bft) 97,92 %
12.12.2021 20:04 9,1 C 8,3 C 7,8 C 100 % 1024,8 hPa 0,0 l/m 0 min 0 min 0 W/m 12,9 km/h (3 Bft) 95,24 %
12.12.2021 20:06 9,1 C 8,3 C 7,8 C 100 % 1024,8 hPa 0,0 l/m 0 min 0 min 0 W/m 16,1 km/h (3 Bft) 97,87 %
12.12.2021 20:08 9,1 C 8,3 C 7,8 C 100 % 1024,8 hPa 0,0 l/m 0 min 0 min 0 W/m 6,4 km/h (2 Bft) 96,30 %
12.12.2021 20:10 9,1 C 8,3 C 7,8 C 100 % 1024,8 hPa 0,0 l/m 0 min 0 min 0 W/m 12,9 km/h (3 Bft) 97,87 %
12.12.2021 20:12 9,1 C 8,3 C 7,8 C 100 % 1024,8 hPa 0,0 l/m 0 min 0 min 0 W/m 12,9 km/h (3 Bft) 97,87 %
12.12.2021 20:14 9,1 C 8,3 C 7,8 C 100 % 1024,8 hPa 0,0 l/m 0 min 0 min 0 W/m 12,9 km/h (3 Bft) 97,87 %
12.12.2021 20:16 9,1 C 8,3 C 7,8 C 100 % 1024,8 hPa 0,0 l/m 0 min 0 min 0 W/m 12,9 km/h (3 Bft) 97,83 %
12.12.2021 20:18 9,2 C 8,3 C 7,8 C 100 % 1024,8 hPa 0,0 l/m 0 min 0 min 0 W/m 6,4 km/h (2 Bft) 97,87 %
12.12.2021 20:20 9,2 C 8,3 C 7,8 C 100 % 1024,8 hPa 0,0 l/m 0 min 0 min 0 W/m 6,4 km/h (2 Bft) 97,87 %
12.12.2021 20:22 9,2 C 8,3 C 7,8 C 100 % 1024,9 hPa 0,0 l/m 0 min 0 min 0 W/m 12,9 km/h (3 Bft) 100,00 %
12.12.2021 20:24 9,2 C 8,3 C 7,8 C 100 % 1024,9 hPa 0,0 l/m 0 min 0 min 0 W/m 12,9 km/h (3 Bft) 97,87 %
12.12.2021 20:26 9,2 C 8,3 C 7,8 C 100 % 1024,9 hPa 0,0 l/m 0 min 0 min 0 W/m 6,4 km/h (2 Bft) 97,87 %
12.12.2021 20:28 9,2 C 8,3 C 7,8 C 100 % 1024,9 hPa 0,0 l/m 0 min 0 min 0 W/m 6,4 km/h (2 Bft) 100,00 %
12.12.2021 20:30 9,2 C 8,3 C 7,8 C 100 % 1024,9 hPa 0,0 l/m 0 min 0 min 0 W/m 12,9 km/h (3 Bft) 100,00 %
12.12.2021 20:32 9,2 C 8,3 C 7,8 C 100 % 1025,0 hPa 0,0 l/m 0 min 0 min 0 W/m 9,7 km/h (2 Bft) 100,00 %
12.12.2021 20:34 9,2 C 8,3 C 7,8 C 100 % 1024,9 hPa 0,0 l/m 0 min 0 min 0 W/m 12,9 km/h (3 Bft) 97,87 %
12.12.2021 20:36 9,2 C 8,3 C 7,8 C 100 % 1024,9 hPa 0,0 l/m 0 min 0 min 0 W/m 9,7 km/h (2 Bft) 100,00 %
12.12.2021 20:38 9,2 C 8,3 C 7,8 C 100 % 1025,0 hPa 0,0 l/m 0 min 0 min 0 W/m 12,9 km/h (3 Bft) 100,00 %
12.12.2021 20:40 9,2 C 8,3 C 7,8 C 100 % 1025,0 hPa 0,0 l/m 0 min 0 min 0 W/m 9,7 km/h (2 Bft) 97,83 %
12.12.2021 20:42 9,2 C 8,3 C 7,8 C 100 % 1025,0 hPa 0,0 l/m 0 min 0 min 0 W/m 16,1 km/h (3 Bft) 100,00 %
12.12.2021 20:44 9,2 C 8,3 C 7,8 C 100 % 1024,9 hPa 0,0 l/m 0 min 0 min 0 W/m 6,4 km/h (2 Bft) 97,87 %
12.12.2021 20:46 9,2 C 8,3 C 7,8 C 100 % 1025,0 hPa 0,0 l/m 0 min 0 min 0 W/m 6,4 km/h (2 Bft) 100,00 %
12.12.2021 20:48 9,2 C 8,3 C 7,8 C 100 % 1025,0 hPa 0,0 l/m 0 min 0 min 0 W/m 9,7 km/h (2 Bft) 100,00 %
12.12.2021 20:50 9,2 C 8,3 C 7,8 C 100 % 1025,0 hPa 0,0 l/m 0 min 0 min 0 W/m 6,4 km/h (2 Bft) 97,87 %
12.12.2021 20:52 9,2 C 8,3 C 7,8 C 100 % 1025,1 hPa 0,0 l/m 0 min 0 min 0 W/m 12,9 km/h (3 Bft) 100,00 %
12.12.2021 20:54 9,2 C 8,3 C 7,8 C 100 % 1025,1 hPa 0,0 l/m 0 min 0 min 0 W/m 9,7 km/h (2 Bft) 100,00 %
12.12.2021 20:56 9,2 C 8,3 C 7,8 C 100 % 1025,1 hPa 0,0 l/m 0 min 0 min 0 W/m 9,7 km/h (2 Bft) 100,00 %
12.12.2021 20:58 9,2 C 8,3 C 7,8 C 100 % 1025,1 hPa 0,0 l/m 0 min 0 min 0 W/m 12,9 km/h (3 Bft) 100,00 %
12.12.2021 21:00 9,2 C 8,3 C 7,8 C 100 % 1025,1 hPa 0,0 l/m 0 min 0 min 0 W/m 6,4 km/h (2 Bft) 100,00 %
12.12.2021 21:02 9,2 C 8,3 C 7,8 C 100 % 1025,1 hPa 0,0 l/m 0 min 0 min 0 W/m 9,7 km/h (2 Bft) 98,00 %
12.12.2021 21:04 9,2 C 8,3 C 7,8 C 100 % 1025,1 hPa 0,0 l/m 0 min 0 min 0 W/m 9,7 km/h (2 Bft) 100,00 %
12.12.2021 21:06 9,2 C 8,3 C 7,8 C 100 % 1025,2 hPa 0,0 l/m 0 min 0 min 0 W/m 12,9 km/h (3 Bft) 100,00 %
12.12.2021 21:08 9,1 C 8,3 C 7,8 C 100 % 1025,2 hPa 0,0 l/m 0 min 0 min 0 W/m 6,4 km/h (2 Bft) 100,00 %
12.12.2021 21:10 9,2 C 8,3 C 7,8 C 100 % 1025,2 hPa 0,0 l/m 0 min 0 min 0 W/m 16,1 km/h (3 Bft) 100,00 %
12.12.2021 21:12 9,2 C 8,3 C 7,8 C 100 % 1025,3 hPa 0,0 l/m 0 min 0 min 0 W/m 6,4 km/h (2 Bft) 100,00 %
12.12.2021 21:14 9,2 C 8,3 C 7,8 C 100 % 1025,2 hPa 0,0 l/m 0 min 0 min 0 W/m 12,9 km/h (3 Bft) 100,00 %
12.12.2021 21:16 9,2 C 8,3 C 7,8 C 100 % 1025,3 hPa 0,0 l/m 0 min 0 min 0 W/m 12,9 km/h (3 Bft) 95,74 %
12.12.2021 21:18 9,2 C 8,3 C 7,8 C 100 % 1025,3 hPa 0,0 l/m 0 min 0 min 0 W/m 12,9 km/h (3 Bft) 100,00 %
12.12.2021 21:20 9,2 C 8,3 C 7,8 C 100 % 1025,2 hPa 0,0 l/m 0 min 0 min 0 W/m 16,1 km/h (3 Bft) 100,00 %
12.12.2021 21:22 9,2 C 8,3 C 7,8 C 100 % 1025,2 hPa 0,0 l/m 0 min 0 min 0 W/m 9,7 km/h (2 Bft) 100,00 %
12.12.2021 21:24 9,2 C 8,3 C 7,8 C 100 % 1025,3 hPa 0,0 l/m 0 min 0 min 0 W/m 9,7 km/h (2 Bft) 97,83 %
12.12.2021 21:26 9,2 C 8,3 C 7,8 C 100 % 1025,3 hPa 0,0 l/m 0 min 0 min 0 W/m 6,4 km/h (2 Bft) 97,87 %
12.12.2021 21:28 9,2 C 8,3 C 7,8 C 100 % 1025,3 hPa 0,0 l/m 0 min 0 min 0 W/m 12,9 km/h (3 Bft) 97,87 %
12.12.2021 21:30 9,2 C 8,3 C 7,8 C 100 % 1025,3 hPa 0,0 l/m 0 min 0 min 0 W/m 6,4 km/h (2 Bft) 97,87 %
12.12.2021 21:32 9,1 C 8,3 C 7,8 C 100 % 1025,3 hPa 0,0 l/m 0 min 0 min 0 W/m 6,4 km/h (2 Bft) 97,87 %
12.12.2021 21:34 9,1 C 8,3 C 7,8 C 100 % 1025,3 hPa 0,0 l/m 0 min 0 min 0 W/m 6,4 km/h (2 Bft) 95,65 %
12.12.2021 21:36 9,1 C 8,3 C 7,8 C 100 % 1025,3 hPa 0,0 l/m 0 min 0 min 0 W/m 3,2 km/h (1 Bft) 97,87 %
12.12.2021 21:38 9,1 C 8,3 C 7,8 C 100 % 1025,4 hPa 0,0 l/m 0 min 0 min 0 W/m 6,4 km/h (2 Bft) 95,74 %
12.12.2021 21:40 9,1 C 8,3 C 7,8 C 100 % 1025,4 hPa 0,0 l/m 0 min 0 min 0 W/m 3,2 km/h (1 Bft) 95,74 %
12.12.2021 21:42 9,1 C 8,3 C 7,8 C 100 % 1025,4 hPa 0,0 l/m 0 min 0 min 0 W/m 3,2 km/h (1 Bft) 82,98 %
12.12.2021 21:44 9,1 C 8,3 C 7,8 C 100 % 1025,5 hPa 0,0 l/m 0 min 0 min 0 W/m 12,9 km/h (3 Bft) 63,41 %
12.12.2021 21:46 9,1 C 8,3 C 7,8 C 100 % 1025,4 hPa 0,0 l/m 0 min 0 min 0 W/m 12,9 km/h (3 Bft) 97,83 %
12.12.2021 21:48 9,1 C 8,3 C 7,8 C 100 % 1025,4 hPa 0,0 l/m 0 min 0 min 0 W/m 12,9 km/h (3 Bft) 97,87 %
12.12.2021 21:50 9,1 C 8,3 C 7,8 C 100 % 1025,4 hPa 0,0 l/m 0 min 0 min 0 W/m 9,7 km/h (2 Bft) 95,74 %
12.12.2021 21:52 9,1 C 8,3 C 7,8 C 100 % 1025,4 hPa 0,0 l/m 0 min 0 min 0 W/m 3,2 km/h (1 Bft) 95,74 %
12.12.2021 21:54 9,1 C 8,3 C 7,8 C 100 % 1025,4 hPa 0,0 l/m 0 min 0 min 0 W/m 6,4 km/h (2 Bft) 95,74 %
12.12.2021 21:56 9,1 C 8,3 C 7,8 C 100 % 1025,5 hPa 0,0 l/m 0 min 0 min 0 W/m 6,4 km/h (2 Bft) 95,74 %
12.12.2021 21:58 9,1 C 8,3 C 7,8 C 100 % 1025,4 hPa 0,0 l/m 0 min 0 min 0 W/m 12,9 km/h (3 Bft) 93,88 %
12.12.2021 22:00 9,1 C 8,3 C 7,8 C 100 % 1025,4 hPa 0,0 l/m 0 min 0 min 0 W/m 3,2 km/h (1 Bft) 95,74 %
12.12.2021 22:02 9,1 C 8,3 C 7,8 C 100 % 1025,4 hPa 0,0 l/m 0 min 0 min 0 W/m 6,4 km/h (2 Bft) 97,96 %
12.12.2021 22:04 9,1 C 8,3 C 7,8 C 100 % 1025,5 hPa 0,0 l/m 0 min 0 min 0 W/m 3,2 km/h (1 Bft) 97,87 %
12.12.2021 22:06 9,1 C 8,3 C 7,8 C 100 % 1025,4 hPa 0,0 l/m 0 min 0 min 0 W/m 12,9 km/h (3 Bft) 97,87 %
12.12.2021 22:08 9,1 C 8,3 C 7,8 C 100 % 1025,4 hPa 0,0 l/m 0 min 0 min 0 W/m 6,4 km/h (2 Bft) 97,87 %
12.12.2021 22:10 9,1 C 8,3 C 7,8 C 100 % 1025,5 hPa 0,0 l/m 0 min 0 min 0 W/m 6,4 km/h (2 Bft) 97,87 %
12.12.2021 22:12 9,1 C 8,3 C 7,8 C 100 % 1025,5 hPa 0,0 l/m 0 min 0 min 0 W/m 16,1 km/h (3 Bft) 97,87 %
12.12.2021 22:14 9,1 C 8,3 C 7,8 C 100 % 1025,5 hPa 0,0 l/m 0 min 0 min 0 W/m 12,9 km/h (3 Bft) 97,83 %
12.12.2021 22:16 9,1 C 8,3 C 7,8 C 100 % 1025,5 hPa 0,0 l/m 0 min 0 min 0 W/m 9,7 km/h (2 Bft) 97,87 %
12.12.2021 22:18 9,1 C 8,3 C 7,8 C 100 % 1025,5 hPa 0,0 l/m 0 min 0 min 0 W/m 6,4 km/h (2 Bft) 97,87 %
12.12.2021 22:20 9,1 C 8,3 C 7,8 C 100 % 1025,5 hPa 0,0 l/m 0 min 0 min 0 W/m 6,4 km/h (2 Bft) 97,87 %
12.12.2021 22:22 9,1 C 8,3 C 7,8 C 100 % 1025,5 hPa 0,0 l/m 0 min 0 min 0 W/m 6,4 km/h (2 Bft) 97,87 %
12.12.2021 22:24 9,1 C 8,3 C 7,8 C 100 % 1025,5 hPa 0,0 l/m 0 min 0 min 0 W/m 12,9 km/h (3 Bft) 97,87 %
12.12.2021 22:26 9,1 C 8,3 C 7,8 C 100 % 1025,5 hPa 0,0 l/m 0 min 0 min 0 W/m 12,9 km/h (3 Bft) 93,48 %
12.12.2021 22:28 9,1 C 8,3 C 7,8 C 100 % 1025,5 hPa 0,0 l/m 0 min 0 min 0 W/m 6,4 km/h (2 Bft) 95,74 %
12.12.2021 22:30 9,1 C 8,3 C 7,8 C 100 % 1025,5 hPa 0,0 l/m 0 min 0 min 0 W/m 6,4 km/h (2 Bft) 93,62 %
12.12.2021 22:32 9,1 C 8,3 C 7,8 C 100 % 1025,5 hPa 0,0 l/m 0 min 0 min 0 W/m 9,7 km/h (2 Bft) 95,74 %
12.12.2021 22:34 9,1 C 8,3 C 7,8 C 100 % 1025,5 hPa 0,0 l/m 0 min 0 min 0 W/m 9,7 km/h (2 Bft) 97,87 %
12.12.2021 22:36 9,1 C 8,3 C 7,8 C 100 % 1025,5 hPa 0,0 l/m 0 min 0 min 0 W/m 6,4 km/h (2 Bft) 95,74 %
12.12.2021 22:38 9,1 C 8,3 C 7,8 C 100 % 1025,5 hPa 0,0 l/m 0 min 0 min 0 W/m 6,4 km/h (2 Bft) 97,83 %
12.12.2021 22:40 9,1 C 8,3 C 7,8 C 100 % 1025,5 hPa 0,0 l/m 0 min 0 min 0 W/m 9,7 km/h (2 Bft) 98,00 %
12.12.2021 22:42 9,1 C 8,3 C 7,8 C 100 % 1025,6 hPa 0,0 l/m 0 min 0 min 0 W/m 16,1 km/h (3 Bft) 97,87 %
12.12.2021 22:44 9,1 C 8,3 C 7,8 C 100 % 1025,6 hPa 0,0 l/m 0 min 0 min 0 W/m 6,4 km/h (2 Bft) 97,87 %
12.12.2021 22:46 9,1 C 8,3 C 7,8 C 100 % 1025,6 hPa 0,0 l/m 0 min 0 min 0 W/m 12,9 km/h (3 Bft) 95,74 %
12.12.2021 22:48 9,1 C 8,3 C 7,8 C 100 % 1025,7 hPa 0,0 l/m 0 min 0 min 0 W/m 9,7 km/h (2 Bft) 95,65 %
12.12.2021 22:50 9,1 C 8,3 C 7,8 C 100 % 1025,7 hPa 0,0 l/m 0 min 0 min 0 W/m 6,4 km/h (2 Bft) 97,87 %
12.12.2021 22:52 9,1 C 8,3 C 7,8 C 100 % 1025,7 hPa 0,0 l/m 0 min 0 min 0 W/m 16,1 km/h (3 Bft) 97,87 %
12.12.2021 22:54 9,1 C 8,3 C 7,8 C 100 % 1025,7 hPa 0,0 l/m 0 min 0 min 0 W/m 6,4 km/h (2 Bft) 97,87 %
12.12.2021 22:56 9,1 C 8,3 C 7,8 C 100 % 1025,7 hPa 0,0 l/m 0 min 0 min 0 W/m 16,1 km/h (3 Bft) 97,87 %
12.12.2021 22:58 9,1 C 8,3 C 7,8 C 100 % 1025,7 hPa 0,0 l/m 0 min 0 min 0 W/m 12,9 km/h (3 Bft) 97,87 %
12.12.2021 23:00 9,1 C 8,3 C 7,8 C 100 % 1025,7 hPa 0,0 l/m 0 min 0 min 0 W/m 6,4 km/h (2 Bft) 97,83 %
12.12.2021 23:02 9,1 C 8,3 C 7,8 C 100 % 1025,7 hPa 0,0 l/m 0 min 0 min 0 W/m 16,1 km/h (3 Bft) 97,62 %
12.12.2021 23:04 9,1 C 8,3 C 7,8 C 100 % 1025,7 hPa 0,0 l/m 0 min 0 min 0 W/m 9,7 km/h (2 Bft) 96,00 %
12.12.2021 23:06 9,1 C 8,3 C 7,8 C 100 % 1025,7 hPa 0,0 l/m 0 min 0 min 0 W/m 9,7 km/h (2 Bft) 95,65 %
12.12.2021 23:08 9,1 C 8,3 C 7,8 C 100 % 1025,7 hPa 0,0 l/m 0 min 0 min 0 W/m 6,4 km/h (2 Bft) 95,65 %
12.12.2021 23:10 9,1 C 8,3 C 7,8 C 100 % 1025,7 hPa 0,0 l/m 0 min 0 min 0 W/m 6,4 km/h (2 Bft) 97,87 %
12.12.2021 23:12 9,1 C 8,3 C 7,8 C 100 % 1025,7 hPa 0,0 l/m 0 min 0 min 0 W/m 6,4 km/h (2 Bft) 100,00 %
12.12.2021 23:14 9,1 C 8,3 C 7,8 C 100 % 1025,7 hPa 0,0 l/m 0 min 0 min 0 W/m 12,9 km/h (3 Bft) 97,87 %
12.12.2021 23:16 9,1 C 8,3 C 7,8 C 100 % 1025,7 hPa 0,0 l/m 0 min 0 min 0 W/m 9,7 km/h (2 Bft) 97,87 %
12.12.2021 23:18 9,1 C 8,3 C 7,8 C 100 % 1025,7 hPa 0,0 l/m 0 min 0 min 0 W/m 12,9 km/h (3 Bft) 95,65 %
12.12.2021 23:20 9,1 C 8,3 C 7,8 C 100 % 1025,7 hPa 0,0 l/m 0 min 0 min 0 W/m 9,7 km/h (2 Bft) 100,00 %
12.12.2021 23:22 9,1 C 8,3 C 7,8 C 100 % 1025,7 hPa 0,0 l/m 0 min 0 min 0 W/m 16,1 km/h (3 Bft) 97,87 %
12.12.2021 23:24 9,1 C 8,3 C 7,8 C 100 % 1025,7 hPa 0,0 l/m 0 min 0 min 0 W/m 12,9 km/h (3 Bft) 97,87 %
12.12.2021 23:26 9,1 C 8,3 C 7,8 C 100 % 1025,8 hPa 0,0 l/m 0 min 0 min 0 W/m 12,9 km/h (3 Bft) 97,87 %
12.12.2021 23:28 9,1 C 8,3 C 7,8 C 100 % 1025,8 hPa 0,0 l/m 0 min 0 min 0 W/m 16,1 km/h (3 Bft) 95,65 %
12.12.2021 23:30 9,1 C 8,3 C 7,8 C 100 % 1025,7 hPa 0,0 l/m 0 min 0 min 0 W/m 12,9 km/h (3 Bft) 97,87 %
12.12.2021 23:32 9,1 C 8,3 C 7,8 C 100 % 1025,8 hPa 0,0 l/m 0 min 0 min 0 W/m 12,9 km/h (3 Bft) 95,74 %
12.12.2021 23:34 9,1 C 8,3 C 7,8 C 100 % 1025,8 hPa 0,0 l/m 0 min 0 min 0 W/m 19,3 km/h (3 Bft) 97,87 %
12.12.2021 23:36 9,1 C 8,3 C 7,8 C 100 % 1025,8 hPa 0,0 l/m 0 min 0 min 0 W/m 12,9 km/h (3 Bft) 97,87 %
12.12.2021 23:38 9,1 C 8,3 C 7,8 C 100 % 1025,9 hPa 0,0 l/m 0 min 0 min 0 W/m 12,9 km/h (3 Bft) 97,87 %
12.12.2021 23:40 9,1 C 8,3 C 7,8 C 100 % 1025,9 hPa 0,0 l/m 0 min 0 min 0 W/m 12,9 km/h (3 Bft) 97,83 %
12.12.2021 23:42 9,1 C 8,3 C 7,8 C 100 % 1025,9 hPa 0,0 l/m 0 min 0 min 0 W/m 12,9 km/h (3 Bft) 97,87 %
12.12.2021 23:44 9,1 C 8,3 C 7,8 C 100 % 1025,9 hPa 0,0 l/m 0 min 0 min 0 W/m 12,9 km/h (3 Bft) 97,87 %
12.12.2021 23:46 9,1 C 8,3 C 7,8 C 100 % 1025,9 hPa 0,0 l/m 0 min 0 min 0 W/m 12,9 km/h (3 Bft) 95,74 %
12.12.2021 23:48 9,1 C 8,3 C 7,8 C 100 % 1026,0 hPa 0,0 l/m 0 min 0 min 0 W/m 16,1 km/h (3 Bft) 95,74 %
12.12.2021 23:50 9,1 C 8,3 C 7,8 C 100 % 1026,0 hPa 0,0 l/m 0 min 0 min 0 W/m 12,9 km/h (3 Bft) 97,87 %
12.12.2021 23:52 9,1 C 8,3 C 7,8 C 100 % 1026,0 hPa 0,0 l/m 0 min 0 min 0 W/m 12,9 km/h (3 Bft) 95,65 %
12.12.2021 23:54 9,1 C 8,3 C 7,8 C 100 % 1026,0 hPa 0,0 l/m 0 min 0 min 0 W/m 19,3 km/h (3 Bft) 97,87 %
12.12.2021 23:56 9,1 C 8,3 C 7,8 C 100 % 1026,1 hPa 0,0 l/m 0 min 0 min 0 W/m 16,1 km/h (3 Bft) 97,87 %
12.12.2021 23:58 9,1 C 8,3 C 7,8 C 100 % 1026,1 hPa 0,0 l/m 0 min 0 min 0 W/m 12,9 km/h (3 Bft) 98,00 %
_ Min-Zeit 01:34 01:20 00:00 04:12 06:10 - - - - 11:52 01:16
Minimum _ 2,3 C 1,7 C 0,6 C 95 % 1021,5 hPa - - - - 0,0 km/h (0 Bft) 47,50 %
_ Max-Zeit 20:18 19:18 19:30 12:32 23:56 04:34 00:00 04:22 13:02 12:26 00:22
Maximum _ 9,2 C 8,3 C 7,8 C 100 % 1026,1 hPa 0,2 l/m 0 min 2 min 51 W/m 25,7 km/h
S-SO (4 Bft)
100,00 %
Durchschnitt _ 6,1 C 5,5 C 4,6 C 98 % 1023,1 hPa #3,6 l/m #0 min. #2:06 h 23 W/m 11,9 km/h (2 Bft) 97,37 %
© 2021 W. Hausmann